ECMWFNIL_700_spd_024.txt.gz
Wind_Speed
17 12 8 6 3 2 1 3 4 5 5 5 5 6 8 9 10 11 11 11 10 10 9 8 7 7 6 5 5 4 4 3 3 3 2 2 3 3 4 5 5 5
19 14 12 11 8 5 3 2 3 4 4 4 4 5 6 7 9 10 11 11 12 12 11 11 11 10 10 9 8 8 7 7 6 6 5 5 4 3 2 2 2 2
21 16 14 13 11 8 6 4 3 3 3 3 3 2 3 4 5 6 8 9 10 10 11 12 12 12 11 11 10 10 10 9 9 8 8 7 6 6 5 3 3 2
23 18 17 16 14 11 9 7 6 5 5 4 3 1 0 1 2 2 3 4 5 6 7 8 9 10 10 10 10 9 9 9 9 9 8 8 8 7 7 6 5 4
23 21 20 19 17 14 12 11 10 9 8 7 6 5 3 3 2 2 2 1 0 1 2 3 4 5 5 5 6 6 6 6 6 6 6 6 7 7 7 6 6 5
26 24 25 22 19 17 16 15 14 13 12 11 10 8 7 6 6 5 5 5 5 4 4 3 3 2 1 1 1 1 2 2 2 2 2 3 3 4 4 4 4 4
29 28 28 25 21 21 20 19 19 17 16 15 13 12 11 10 9 9 8 8 8 8 9 9 8 7 6 6 5 5 4 4 4 3 3 3 2 2 3 3 3 3
31 29 28 27 25 24 23 23 22 21 19 18 16 14 12 12 12 11 10 10 9 10 11 12 12 12 12 10 10 9 9 9 9 8 8 7 7 6 6 5 6 6
33 31 30 30 27 26 26 25 24 22 20 18 17 16 15 14 13 13 12 13 13 13 13 13 14 14 14 14 13 13 13 13 13 12 11 10 10 9 8 7 7 7
33 33 31 29 27 26 26 24 21 19 17 16 17 18 17 16 16 16 16 16 16 17 16 15 15 15 14 14 14 14 15 15 15 14 13 12 11 11 10 9 9 9
25 26 26 26 26 26 24 22 20 17 15 17 19 20 19 19 20 21 22 22 21 20 19 18 18 18 17 16 16 16 16 17 17 17 15 14 13 13 12 11 12 12
15 17 20 22 24 25 24 22 20 16 15 18 20 21 21 21 22 23 24 26 26 24 21 20 21 21 20 19 19 19 19 19 18 17 17 16 15 14 13 13 13 15
9 13 18 19 20 22 22 20 17 16 17 20 22 23 23 21 20 21 21 23 25 23 22 22 23 24 23 21 20 21 22 22 20 18 18 18 17 15 14 14 15 17
9 12 15 17 18 19 19 19 19 20 20 21 21 21 19 16 16 17 18 19 20 19 19 20 22 24 25 24 24 24 25 24 22 21 21 21 21 19 18 17 17 18
9 9 11 13 14 15 16 17 18 19 19 19 18 16 15 14 15 17 18 18 17 16 16 16 17 18 19 21 23 24 24 24 23 21 20 21 23 24 23 22 20 18
8 8 10 10 10 11 12 13 14 14 14 14 14 13 13 14 15 16 16 16 16 16 16 16 16 15 16 17 18 18 20 22 23 21 18 19 22 25 26 26 24 21
9 10 10 10 10 11 12 12 13 13 13 13 13 13 14 15 16 16 16 16 17 17 18 19 18 19 19 19 18 19 20 21 21 21 21 21 22 25 27 28 28 26
11 11 12 12 12 12 13 14 15 15 16 16 16 17 18 19 20 20 20 20 20 20 21 22 22 22 22 22 22 22 23 23 23 24 24 25 26 27 29 30 31 30
12 13 13 13 13 14 15 15 16 17 18 19 19 20 20 21 21 21 21 22 22 23 23 24 24 24 24 24 24 24 25 26 27 27 27 28 28 29 29 30 31 31
14 15 15 15 15 16 17 17 18 19 19 20 20 20 20 20 21 21 21 22 23 24 24 25 24 24 25 25 25 25 26 27 27 27 28 28 29 29 28 28 29 30
16 17 17 17 17 17 18 18 18 18 18 19 19 20 20 20 21 21 21 22 22 23 23 23 22 23 23 24 24 24 25 26 26 25 25 26 27 27 27 27 27 28
19 19 19 18 18 18 18 18 18 18 18 18 18 19 20 20 21 22 23 23 24 24 23 22 21 22 22 23 23 23 24 25 25 25 25 26 26 26 26 27 27 28
21 21 20 19 19 19 19 18 18 18 19 19 19 19 20 21 22 23 23 24 24 24 24 23 22 22 22 22 23 23 24 24 25 26 26 27 28 28 28 28 29 30
23 22 21 21 21 20 20 20 20 20 21 21 20 21 21 22 23 24 24 24 24 23 23 23 22 22 21 21 21 21 21 22 23 24 25 26 27 28 28 28 29 31
25 24 23 23 23 23 23 23 23 23 23 23 22 23 23 24 25 26 26 26 26 25 25 25 24 23 23 23 23 22 22 22 22 23 24 24 25 25 26 27 28 30
27 26 26 26 26 26 26 26 26 25 25 24 24 24 25 25 26 27 28 29 29 29 29 29 28 28 28 28 28 27 26 26 25 25 25 24 25 25 26 27 29 31

ECMWFNIL_700_spd_027.txt.gz
Wind_Speed
18 18 17 15 12 9 5 2 1 2 4 5 7 8 8 8 6 5 4 3 3 3 3 3 3 3 3 3 2 2 2 2 2 3 3 4 4 5 5 5 5 5
21 21 22 21 16 12 8 5 4 3 3 4 6 8 8 8 7 6 6 5 5 4 4 4 3 3 4 4 3 3 3 3 3 3 3 3 2 2 3 3 4 4
26 25 25 25 19 15 11 8 6 5 3 2 4 5 6 6 7 6 6 6 6 5 5 5 5 5 5 6 6 6 6 6 6 6 5 5 4 4 3 2 2 1
32 29 28 28 22 17 14 11 9 6 5 5 3 3 4 4 5 5 5 5 6 6 6 6 6 6 6 6 6 6 6 6 6 7 7 6 6 6 6 5 5 4
35 31 29 31 24 18 17 13 11 9 8 8 6 5 4 3 3 2 2 2 3 4 5 6 6 7 7 7 7 7 7 6 6 6 6 6 6 6 6 5 5 5
34 31 29 30 26 20 20 16 14 13 11 10 9 8 7 5 4 3 2 2 1 2 3 4 5 5 6 6 7 7 7 6 6 5 5 5 5 5 5 5 5 5
30 31 29 29 27 23 22 19 16 16 15 14 13 11 9 8 7 6 6 5 4 4 4 4 4 5 6 7 7 7 8 8 8 7 7 6 5 5 4 4 4 4
26 30 29 28 28 26 24 22 18 18 19 18 16 13 12 10 10 9 9 8 8 7 6 6 6 7 8 9 9 9 10 10 11 11 10 10 9 8 7 7 7 6
23 29 31 30 29 27 26 25 23 22 23 22 19 16 14 13 12 12 12 12 11 10 9 8 8 9 10 10 11 11 12 12 13 13 13 13 12 11 10 9 9 9
21 26 30 31 30 29 29 29 28 26 25 25 24 21 19 17 16 16 16 15 13 12 12 12 11 12 12 12 12 13 13 13 14 15 15 15 15 14 13 12 12 11
21 23 27 30 31 32 33 32 30 29 28 27 26 24 22 22 22 21 18 14 12 14 16 16 16 16 15 15 15 15 16 15 15 16 17 17 17 16 15 15 14 14
19 21 23 27 32 33 33 31 28 29 29 26 25 25 24 23 23 20 16 13 14 17 19 18 19 19 18 17 18 18 18 18 17 17 18 19 19 18 17 17 16 15
17 19 21 24 29 32 32 30 27 25 25 24 24 24 23 22 21 19 17 16 16 18 18 17 18 20 19 17 18 19 20 20 19 18 19 20 21 20 19 19 18 17
14 17 20 21 23 26 27 26 24 22 23 24 23 22 21 22 21 19 18 18 17 16 15 14 16 19 19 18 19 21 22 22 22 21 20 20 22 22 22 21 21 20
13 16 19 19 18 20 20 20 20 20 22 22 20 19 21 24 22 18 16 16 15 14 14 13 15 16 17 17 19 20 21 23 24 24 23 22 23 24 23 22 22 23
15 16 17 17 16 17 17 18 18 18 18 17 16 17 19 21 18 15 14 15 14 13 12 13 14 14 15 16 16 17 18 19 21 22 22 23 25 26 25 23 21 22
16 17 17 16 15 14 15 15 15 15 15 15 15 15 15 16 15 14 15 15 15 15 14 15 15 15 16 17 18 19 20 20 20 20 21 22 24 26 27 25 23 22
14 15 16 15 14 14 14 14 14 14 15 14 14 13 13 15 17 18 18 19 19 19 19 19 19 19 20 21 22 23 24 24 23 23 23 24 25 25 26 26 26 26
15 15 15 14 14 14 14 14 14 14 15 14 14 14 15 16 17 18 20 21 21 21 21 21 21 21 22 23 24 25 26 27 27 27 27 27 27 27 26 26 27 28
17 17 16 16 15 15 15 15 15 15 16 16 17 18 19 19 20 21 22 22 22 22 21 21 21 21 22 23 24 25 26 27 28 28 28 28 28 28 28 28 29 29
19 19 19 19 19 18 18 18 18 18 18 19 20 21 22 23 23 23 23 23 23 22 21 20 20 20 21 22 23 24 25 26 26 27 27 27 27 27 27 28 29 29
22 22 22 22 21 21 20 20 20 20 20 21 22 22 23 24 24 25 24 24 23 23 22 21 21 21 21 22 23 24 25 25 26 26 26 27 27 26 27 27 28 28
24 24 24 24 23 22 22 21 21 21 21 22 22 23 23 24 24 25 25 25 24 24 23 22 22 22 22 22 23 24 25 25 25 26 26 26 27 27 27 27 28 29
25 26 26 26 25 23 22 22 22 22 22 22 23 23 23 23 23 24 24 25 24 24 24 24 23 23 23 23 23 24 24 24 24 24 24 24 24 25 25 26 27 27
26 27 27 26 25 24 24 24 24 25 25 25 24 24 24 24 24 24 24 24 24 24 24 24 25 25 26 26 26 26 26 26 26 26 25 25 24 24 25 25 25 26
26 26 26 26 26 26 27 27 27 28 28 27 27 27 26 26 26 25 24 24 24 24 25 25 26 27 28 29 30 30 30 30 30 30 29 29 29 29 29 29 29 29

ECMWFNIL_700_spd_030.txt.gz
Wind_Speed
21 18 17 16 13 10 9 10 10 7 5 4 3 4 5 6 6 6 6 7 7 7 6 5 5 4 4 4 4 3 3 2 2 2 3 3 4 4 4 4 4 4
23 20 19 20 18 15 12 11 11 7 4 2 1 2 4 6 7 7 8 10 11 11 10 10 9 9 8 8 8 7 6 5 5 4 3 3 2 3 3 3 3 4
25 21 22 22 21 20 17 14 14 9 4 3 2 1 3 5 7 8 9 10 12 12 12 11 12 12 12 12 12 11 11 10 9 9 8 7 6 5 5 5 4 4
26 23 24 26 26 26 21 19 18 12 7 6 3 2 2 4 5 7 8 9 10 10 10 10 10 10 10 11 11 11 12 11 11 11 11 10 9 8 8 7 7 6
26 26 27 29 31 30 26 23 20 13 10 9 5 4 3 2 3 3 5 5 6 6 7 7 6 6 7 7 7 7 8 8 9 10 10 10 10 9 9 9 8 8
22 26 29 31 33 33 28 24 19 14 14 13 9 8 6 5 5 3 3 3 3 3 3 2 2 2 2 2 3 3 3 4 5 6 6 7 8 8 7 7 7 7
17 22 28 32 35 33 28 23 18 15 18 17 14 13 10 10 10 8 8 6 5 5 4 3 2 2 3 3 3 3 3 3 3 4 5 5 6 6 6 6 6 6
15 19 23 29 33 33 29 25 19 18 22 22 18 16 15 14 14 12 11 10 9 9 8 7 6 5 6 6 6 7 7 6 5 5 5 5 6 6 7 7 7 7
15 17 19 23 29 31 30 28 23 22 25 25 20 19 18 18 16 15 13 12 11 11 11 10 9 8 8 8 9 9 10 10 9 8 7 7 7 7 8 9 9 10
14 15 16 18 23 27 29 29 27 24 25 26 24 23 22 20 18 17 15 15 14 13 13 14 14 12 11 11 12 12 13 13 12 11 10 10 10 10 10 11 11 12
13 14 14 15 19 24 27 28 27 25 26 28 28 27 25 23 21 20 19 19 18 17 16 17 17 16 15 15 15 14 15 16 16 15 14 13 13 13 14 14 13 13
13 14 14 14 16 20 23 26 27 26 26 28 30 30 26 24 24 23 23 23 22 19 17 17 19 19 19 18 16 16 18 18 16 17 17 16 15 16 16 17 17 16
15 14 14 15 17 19 21 25 27 27 27 28 31 31 28 27 26 26 27 26 23 19 17 17 18 19 19 19 17 16 17 16 15 17 18 18 18 18 17 17 18 18
16 16 15 16 18 20 20 22 25 27 28 29 30 30 31 29 27 29 31 28 22 18 17 16 17 16 16 16 16 15 16 16 17 20 21 22 22 21 20 19 19 19
18 17 17 17 19 20 20 19 21 25 28 29 29 29 29 27 25 27 27 24 20 18 16 16 16 16 15 14 13 13 14 16 18 19 20 21 22 23 23 22 21 21
18 18 18 18 18 19 19 18 20 23 25 27 26 25 23 21 22 21 19 18 18 17 16 16 15 15 15 14 13 14 15 16 17 17 17 17 19 20 21 22 21 22
17 17 18 18 17 18 19 19 20 22 24 24 24 23 20 18 18 17 15 15 15 15 15 16 16 15 15 15 15 15 16 17 18 18 18 18 19 19 19 20 21 22
18 18 18 18 18 18 19 20 21 22 23 23 23 21 19 17 16 15 15 15 15 16 17 18 18 17 17 17 18 19 20 20 20 21 21 21 22 21 21 22 22 23
19 20 20 20 20 20 20 20 21 22 22 22 22 21 19 18 17 16 17 17 18 18 19 19 18 19 19 21 22 23 23 23 23 24 24 24 24 24 24 24 25 25
20 21 21 21 22 21 21 22 22 22 23 23 22 22 21 20 19 18 19 19 19 19 20 20 20 21 22 24 24 25 25 25 25 25 25 25 26 26 26 26 26 26
21 21 22 22 23 22 22 23 24 24 25 24 24 23 22 22 22 21 21 21 22 22 22 22 22 23 24 24 25 25 26 26 26 26 26 26 27 27 28 28 28 28
23 23 23 24 24 23 23 24 25 26 26 26 25 24 24 23 23 23 23 23 23 22 22 22 23 23 23 24 24 25 26 26 26 27 27 27 27 27 28 28 28 28
25 24 24 25 25 24 25 25 26 26 26 26 26 25 25 24 24 23 23 23 23 22 22 23 23 23 24 24 25 25 26 26 27 27 27 27 27 27 27 27 28 28
26 25 25 26 25 25 26 25 25 25 25 25 25 25 25 25 24 24 24 24 24 23 23 23 23 23 23 23 24 25 25 26 26 27 27 27 27 27 27 27 27 27
25 24 24 25 26 27 27 27 26 26 26 26 26 26 26 26 26 26 26 26 26 25 25 25 24 24 24 24 24 25 26 26 27 28 28 28 29 29 28 28 28 28
25 24 24 24 26 27 27 27 27 27 28 28 28 27 27 27 27 28 28 28 28 28 28 27 27 27 27 27 27 28 28 29 29 29 30 30 31 31 31 31 32 32

ECMWFNIL_700_spd_033.txt.gz
Wind_Speed
16 16 17 18 18 19 17 15 14 12 10 10 8 6 5 5 6 6 7 8 9 10 11 11 11 12 12 11 10 10 10 10 9 8 7 7 7 7 6 5 4 3
21 21 22 21 20 20 18 15 14 12 8 6 6 6 4 3 5 6 8 9 11 13 14 15 15 15 15 14 14 14 14 14 13 12 12 11 10 10 9 8 6 5
22 23 25 24 22 21 19 17 16 13 9 8 7 5 3 1 4 6 8 10 12 14 14 15 15 15 15 15 15 15 15 15 14 14 14 13 12 12 11 10 9 8
19 21 24 25 24 24 21 20 21 16 13 13 11 7 4 2 3 5 7 9 10 12 12 12 13 13 12 12 12 12 12 12 12 11 12 11 11 11 10 10 9 9
16 18 20 22 24 24 22 22 24 21 17 14 11 9 8 5 4 4 5 6 7 8 8 9 9 9 9 9 8 8 8 8 8 7 7 8 7 7 7 7 7 7
14 14 16 20 23 24 23 23 24 22 20 15 10 12 11 8 6 4 4 4 4 4 4 5 5 5 5 5 4 4 4 4 4 3 3 3 3 3 3 3 4 4
13 12 13 16 20 23 24 24 24 23 21 17 13 14 14 11 9 8 6 5 5 5 5 4 4 4 4 4 3 3 3 3 2 2 2 2 2 2 2 2 2 3
12 13 12 13 17 21 24 25 25 25 23 19 16 16 16 16 14 12 10 9 9 8 8 7 7 6 6 6 6 6 6 6 6 6 5 5 5 5 5 5 5 5
12 13 13 13 14 18 22 25 26 25 24 21 19 18 18 19 18 16 15 14 13 12 11 10 10 10 10 10 9 9 9 9 9 9 8 7 7 7 7 7 7 8
12 13 13 13 13 15 19 23 25 25 24 23 20 20 20 21 22 21 19 17 16 15 14 13 13 13 13 13 13 12 12 12 12 12 11 10 9 9 10 10 10 10
12 13 13 12 13 14 17 20 23 24 24 23 22 22 22 24 25 25 23 21 19 17 17 17 17 16 16 16 16 16 16 15 14 14 14 13 12 11 11 12 13 13
12 13 14 13 13 14 15 18 21 23 23 24 24 23 24 25 26 27 26 24 22 21 20 20 20 19 19 19 20 20 22 20 16 15 16 17 15 13 11 11 13 14
12 13 15 16 15 15 15 16 18 21 23 25 26 25 25 25 25 26 26 25 24 23 23 23 23 21 21 21 20 20 21 19 15 14 16 17 17 15 14 13 14 15
14 15 16 17 18 18 17 16 17 19 22 25 26 27 27 26 25 25 25 25 25 26 26 25 25 23 22 21 20 18 17 15 13 13 15 16 16 16 16 16 17 17
15 16 17 19 20 20 20 18 18 20 22 24 27 28 28 27 26 24 24 26 29 30 29 27 27 26 23 22 20 17 15 15 14 14 14 15 16 15 15 16 18 19
15 17 18 20 20 21 21 20 19 21 22 24 26 28 27 26 25 24 25 28 29 27 25 24 26 26 22 20 19 17 16 15 15 15 16 15 15 14 14 15 16 17
16 17 18 19 20 21 21 21 21 21 23 24 25 24 24 23 24 25 26 25 22 19 18 18 21 23 21 20 19 18 17 17 17 17 17 16 16 15 16 16 17 18
17 18 18 19 20 21 21 21 21 22 23 23 23 23 23 23 24 25 24 22 19 18 18 18 20 22 22 21 20 19 19 18 18 18 17 17 17 17 18 18 19 20
19 19 20 20 21 21 22 22 21 22 22 23 23 23 22 23 24 24 23 22 20 20 21 21 22 23 23 23 22 21 21 21 20 19 18 18 19 19 20 20 21 21
21 21 22 22 22 22 23 23 23 23 23 23 24 23 21 22 24 22 21 21 22 22 22 23 23 23 23 23 23 22 22 22 21 20 20 20 21 21 22 22 23 23
23 24 24 23 23 24 24 24 25 24 23 22 22 20 20 22 23 21 21 22 22 22 22 22 22 22 23 23 22 22 22 22 22 22 22 22 23 23 24 24 25 25
24 26 26 25 24 24 25 25 25 24 24 24 23 21 21 22 22 22 23 23 22 22 21 21 21 22 22 22 22 22 21 22 22 22 23 23 24 24 25 25 25 26
22 25 27 28 27 25 24 23 23 23 23 23 23 23 22 22 22 23 23 22 22 21 21 20 20 21 21 21 21 21 21 22 22 22 23 24 24 25 25 25 26 26
22 23 25 27 27 27 25 25 25 25 24 24 24 24 23 23 22 22 22 22 22 21 20 20 20 20 20 20 20 21 21 21 22 22 23 24 25 25 26 26 27 27
22 22 23 24 25 27 29 29 29 29 28 28 28 28 27 26 25 24 23 23 21 20 20 20 20 21 21 21 21 22 22 23 24 24 25 26 27 27 27 27 28 28
21 20 20 20 22 26 30 31 31 31 31 31 31 31 30 28 27 26 25 23 22 22 22 22 22 23 23 23 23 24 25 26 27 28 28 29 30 30 30 30 29 29

ECMWFNIL_700_spd_036.txt.gz
Wind_Speed
14 14 15 16 16 17 16 16 15 13 12 10 8 7 7 6 4 3 3 4 5 7 8 9 9 10 9 9 9 9 9 9 9 8 8 8 7 7 7 7 6 5
15 16 17 17 18 18 17 16 15 13 11 9 7 6 7 6 3 2 4 5 6 8 10 10 11 11 11 11 11 11 12 12 12 11 10 10 9 8 8 7 7 6
16 17 18 19 20 20 18 17 16 14 12 10 10 8 6 5 2 1 4 5 7 8 10 11 12 13 12 12 12 12 13 13 13 12 12 12 11 10 10 9 8 7
17 19 20 21 22 21 20 18 18 17 15 14 13 11 5 3 2 2 4 5 7 8 10 11 12 12 12 12 11 11 12 12 11 11 11 11 11 10 10 9 9 9
19 20 20 20 20 21 21 20 19 18 17 16 15 11 5 6 4 4 6 6 6 7 8 9 9 10 10 9 9 9 8 9 8 8 8 8 8 8 8 7 7 7
19 18 17 17 17 18 20 20 19 18 18 17 15 10 5 8 7 6 6 6 6 6 6 6 6 6 5 5 5 5 4 4 4 5 5 5 4 4 4 4 4 4
16 15 15 15 15 15 17 18 19 19 18 17 16 12 8 8 10 9 8 7 7 7 6 5 5 4 3 2 2 1 1 1 1 1 1 2 2 2 2 1 1 1
14 14 13 14 13 13 14 16 18 19 19 18 17 15 11 10 13 13 11 10 10 9 9 8 7 6 5 5 5 5 5 5 5 5 5 5 4 4 4 4 4 3
11 11 12 12 12 12 13 15 17 19 20 19 18 17 15 13 15 16 16 14 13 13 12 11 10 9 9 9 8 8 8 8 8 8 8 9 8 8 7 6 6 6
9 10 11 11 11 12 13 14 17 19 20 20 20 19 18 16 17 18 19 18 16 16 15 14 14 13 13 12 11 11 11 11 11 11 11 11 11 11 10 10 9 9
9 10 11 11 11 12 12 13 16 18 19 21 22 21 21 19 18 19 20 20 19 19 18 17 17 16 15 15 14 14 13 14 14 15 15 14 14 14 13 13 13 12
11 11 12 12 12 12 12 12 14 15 17 19 21 23 22 21 20 20 21 22 22 22 21 21 21 21 19 17 17 16 16 17 17 18 19 18 18 17 15 14 14 12
13 13 13 13 13 14 14 13 13 14 15 17 19 21 22 22 22 22 22 24 24 24 24 25 25 24 23 22 21 20 20 20 19 18 19 18 17 16 14 13 13 12
16 16 15 15 15 15 15 16 16 15 16 17 18 20 22 23 23 24 25 25 25 25 26 26 25 24 25 25 25 24 23 21 19 17 16 15 15 14 13 13 13 13
18 18 17 17 17 16 16 17 17 18 18 17 18 20 22 23 24 26 27 27 27 27 27 27 25 24 24 25 27 27 26 22 19 17 17 16 15 14 13 13 13 13
19 19 19 19 19 19 18 18 18 18 19 18 19 21 23 24 26 27 28 27 28 28 27 26 25 25 26 27 28 28 26 22 20 19 19 17 15 14 14 14 14 13
19 20 20 20 20 20 20 19 18 19 19 19 20 22 24 26 28 29 30 29 29 28 28 26 26 26 26 26 25 25 24 22 21 20 19 18 16 15 15 15 15 15
18 18 19 20 20 21 21 20 19 19 20 21 22 25 28 29 30 31 31 30 29 27 27 26 25 24 23 21 20 21 22 21 21 20 19 18 18 17 16 16 16 15
16 17 18 19 20 21 22 22 22 21 22 23 24 26 28 29 31 32 30 29 28 26 26 26 24 21 20 19 19 20 22 21 21 19 19 19 17 16 16 15 14 14
16 17 18 19 20 22 23 24 24 24 25 25 25 25 26 27 29 31 29 28 27 25 25 25 23 20 20 19 18 20 21 20 19 19 18 18 17 16 15 14 14 14
18 19 20 20 21 22 23 23 25 26 26 27 26 25 26 27 29 30 29 28 27 26 25 23 21 20 20 19 19 19 19 19 19 18 18 17 17 17 16 16 17 18
19 20 20 21 21 23 23 24 26 27 28 29 29 28 28 29 29 29 27 26 24 23 22 20 19 19 20 20 19 19 19 18 18 18 18 18 18 18 18 18 19 19
21 21 22 22 23 23 24 25 26 28 30 32 33 32 30 29 29 28 26 24 20 16 15 15 17 19 19 19 19 18 18 17 18 18 19 19 18 18 18 19 19 19
26 25 25 25 25 25 26 27 28 28 30 33 34 34 33 31 29 27 25 23 21 18 16 16 18 19 19 18 18 17 16 16 17 18 18 18 18 19 19 19 19 20
28 28 27 27 28 29 29 30 30 30 30 31 33 33 33 31 29 26 24 22 21 20 20 20 19 19 19 18 17 16 16 16 17 18 19 19 20 20 21 21 21 22
29 29 29 29 29 30 30 31 31 30 29 30 30 31 31 31 29 27 26 25 24 24 24 23 22 21 20 19 18 17 17 17 18 19 20 21 21 22 22 23 24 25

ECMWFNIL_700_spd_039.txt.gz
Wind_Speed
16 14 12 10 9 9 10 12 13 13 12 10 8 7 7 7 5 4 2 2 2 2 3 4 4 5 5 5 5 4 4 4 3 3 3 3 3 4 4 5 5 5
16 13 12 11 11 10 11 13 14 14 12 9 6 7 9 8 5 3 1 2 3 3 4 5 5 5 5 5 4 4 4 4 4 4 4 4 4 4 4 4 4 4
15 13 13 12 12 11 12 14 15 15 12 8 7 8 10 8 4 2 0 3 4 4 5 5 6 6 7 6 6 5 5 5 6 6 6 6 6 5 5 4 4 4
15 14 13 13 13 13 14 16 17 16 14 11 9 9 9 5 2 1 1 3 4 5 5 5 6 6 7 7 6 6 6 6 6 6 6 7 7 7 7 6 6 5
15 13 12 13 14 14 16 17 17 17 15 13 10 8 8 4 3 2 1 3 4 4 5 5 5 6 6 6 6 6 6 6 6 6 6 6 6 6 7 7 6 6
14 13 12 14 14 15 16 16 16 16 15 13 10 8 7 3 5 4 3 3 3 3 4 4 4 4 4 5 5 4 4 4 4 4 4 4 4 4 4 4 5 5
14 14 15 15 14 14 14 13 14 14 13 11 10 9 7 4 5 6 5 5 4 4 4 3 4 3 3 3 3 3 2 2 1 1 1 1 2 2 2 1 0 2
17 17 16 15 13 12 11 11 12 12 10 10 10 10 9 6 5 6 7 7 7 7 7 6 6 5 5 4 4 3 2 2 2 2 3 3 3 4 4 4 4 3
16 15 14 12 11 10 10 10 10 11 10 11 11 11 11 10 8 7 8 9 10 10 9 9 9 8 8 8 7 6 6 5 5 5 5 6 6 7 7 7 6 6
14 13 12 11 10 9 9 8 9 10 11 12 12 12 13 12 11 10 10 10 11 12 12 12 12 11 11 11 11 10 10 9 9 8 8 8 9 10 11 10 10 10
11 11 11 10 10 9 9 8 8 10 11 13 14 14 15 15 14 13 13 12 13 14 15 15 14 14 14 14 14 13 13 12 12 12 12 12 13 14 14 14 14 14
11 11 11 11 10 10 10 8 9 10 11 13 14 16 16 16 16 16 16 15 14 15 15 16 16 17 17 17 16 16 16 16 16 16 15 15 16 17 17 17 16 16
11 11 12 12 11 11 11 10 10 10 11 12 14 15 16 16 17 18 17 16 16 16 16 17 19 19 19 20 20 20 20 20 20 20 19 19 18 18 16 15 16 16
13 14 13 13 13 12 12 11 11 12 13 14 14 15 16 17 17 18 18 18 19 19 20 21 21 21 22 23 23 23 23 23 24 24 23 22 21 19 16 14 14 14
15 14 14 14 14 14 13 12 12 13 15 16 16 16 17 18 18 18 19 20 21 23 24 25 24 24 24 24 23 24 23 23 25 26 26 25 23 21 19 16 14 13
15 14 14 15 15 15 14 13 13 15 17 17 19 20 20 21 21 20 21 23 24 25 26 27 28 27 25 24 23 24 25 24 26 28 28 27 25 23 20 16 14 12
15 15 15 16 16 16 16 16 16 17 18 18 20 22 24 26 26 23 23 23 23 23 25 29 30 26 22 23 24 25 25 25 28 29 28 28 28 24 20 16 13 12
17 17 18 18 18 19 19 20 19 19 19 19 20 22 23 25 24 22 22 23 22 23 27 30 29 24 21 23 24 25 25 26 28 27 26 27 27 23 17 14 13 12
19 20 21 21 21 21 21 21 21 21 22 22 21 21 22 22 20 18 20 22 23 25 28 31 31 27 25 25 25 24 24 26 28 25 22 22 22 18 15 13 13 13
20 21 21 22 23 23 22 22 22 22 24 25 24 24 23 22 21 19 19 22 24 25 27 30 32 31 29 28 27 25 24 25 25 21 16 14 14 13 13 12 12 12
20 20 21 22 23 23 23 23 24 25 26 27 27 26 25 24 23 22 21 22 24 25 26 28 30 30 31 32 30 27 25 24 21 18 14 11 11 13 13 13 13 13
20 20 21 21 22 22 23 24 25 25 26 26 27 27 27 26 26 26 25 25 25 25 26 27 28 27 29 33 32 28 24 21 19 18 16 14 13 14 15 15 15 14
19 20 20 20 20 20 21 23 24 24 25 26 27 26 27 27 28 28 29 29 28 27 26 27 27 25 24 26 28 25 20 18 18 18 17 15 14 16 16 16 15 15
21 21 22 22 22 23 24 25 26 26 27 28 28 27 28 28 28 29 29 27 26 26 25 25 25 23 20 19 20 21 21 21 19 18 18 17 17 18 17 16 16 15
24 25 26 26 27 27 28 29 29 29 29 30 30 30 30 30 30 30 29 28 26 25 25 24 22 21 20 18 19 21 23 23 21 20 20 20 19 20 19 17 17 17
28 29 29 29 29 30 31 31 30 30 32 33 32 32 32 32 33 31 28 29 30 27 26 26 25 22 21 19 19 20 22 23 22 21 22 22 21 22 21 20 20 20

ECMWFNIL_700_spd_042.txt.gz
Wind_Speed
16 19 19 17 14 12 11 10 10 10 11 12 9 4 4 4 2 2 3 3 2 2 1 1 1 1 1 1 1 1 1 1 2 3 4 4 5 5 6 5 5 4
17 20 20 18 15 12 12 11 10 11 12 12 9 6 6 5 2 1 2 2 1 2 2 2 2 2 3 3 3 3 2 2 2 2 3 4 4 5 5 5 5 4
20 20 19 17 15 14 12 11 11 11 12 11 9 8 6 4 1 2 3 2 2 3 4 4 4 4 5 6 6 6 5 5 4 4 4 4 4 4 4 4 4 5
20 19 18 17 15 14 12 11 11 11 11 10 9 7 5 3 1 4 4 3 3 4 5 6 6 7 7 8 8 8 8 8 7 7 6 6 5 4 4 4 4 4
19 18 17 16 14 12 11 11 11 10 10 9 9 6 3 1 3 6 5 4 4 4 5 6 6 7 8 8 8 8 8 8 8 8 8 7 6 6 6 5 5 5
19 17 16 14 11 10 10 10 10 10 10 8 7 5 2 0 4 6 6 4 4 4 4 4 5 5 6 6 6 6 6 6 6 6 5 5 6 6 5 5 5 4
18 16 15 13 10 9 8 8 9 9 8 7 6 5 2 1 4 6 6 5 3 2 2 2 2 3 3 2 2 3 3 3 3 3 2 2 2 2 2 2 3 3
18 16 14 12 9 8 8 7 8 8 7 7 7 6 4 2 4 5 6 5 3 2 1 1 1 1 1 2 2 2 2 2 1 2 2 2 2 2 2 1 1 1
16 14 13 10 8 8 8 7 8 8 7 8 8 7 6 4 3 4 5 5 5 5 5 4 4 5 5 5 5 5 5 5 5 5 5 5 6 5 4 4 5 4
15 14 12 9 8 8 8 8 8 7 7 8 9 8 7 5 4 4 4 5 6 7 8 8 8 9 9 9 9 9 9 9 8 8 8 8 9 9 8 7 8 9
15 13 12 11 10 10 9 8 8 8 8 8 7 8 8 7 6 6 6 6 6 7 9 10 11 12 13 14 13 13 13 12 12 12 12 12 12 13 13 12 12 13
13 12 13 13 12 11 11 10 8 7 7 7 6 7 8 9 8 8 9 9 9 9 10 12 13 14 15 15 14 14 14 14 14 14 15 16 17 16 17 16 16 17
15 14 14 13 11 10 10 9 6 6 6 6 6 7 8 9 9 11 11 11 11 12 13 14 14 14 15 14 13 14 14 15 16 17 18 20 20 20 20 19 19 19
14 13 12 10 8 7 8 8 7 7 8 8 8 9 8 8 10 11 12 12 13 13 13 14 14 14 14 14 14 14 15 16 18 19 20 20 20 20 21 21 20 19
9 9 9 7 7 8 8 8 8 9 9 9 10 11 10 9 10 11 12 13 13 14 15 16 15 15 15 16 17 16 17 19 21 23 22 20 19 17 19 21 21 21
9 9 8 6 7 8 8 8 8 9 10 10 12 13 12 12 13 13 14 14 14 15 18 17 16 16 17 19 20 21 20 22 25 26 24 22 20 18 19 21 22 21
9 7 6 6 6 7 7 8 9 10 11 12 13 13 13 14 15 14 15 16 16 18 21 20 16 16 17 19 20 22 24 25 27 28 26 25 24 22 21 22 22 21
8 7 7 7 7 8 9 10 11 12 13 13 13 13 13 14 15 14 15 17 18 20 23 23 20 17 17 18 20 21 24 26 29 29 27 27 27 25 23 22 22 20
10 10 10 11 11 11 11 12 12 13 14 14 14 13 14 14 14 14 15 16 18 20 23 24 22 20 19 20 22 23 24 26 30 30 29 28 27 25 23 22 20 18
12 12 13 13 13 14 14 14 15 16 16 16 16 16 16 15 16 16 16 17 18 20 22 23 23 21 20 21 21 22 23 25 28 29 29 29 28 24 21 18 16 14
14 15 15 15 15 16 16 17 19 20 20 19 20 21 20 19 19 19 17 18 19 20 22 25 25 24 22 22 22 22 23 24 26 28 29 29 28 23 17 14 13 13
16 17 18 18 19 18 19 20 21 22 23 23 23 22 21 21 20 19 18 18 19 20 22 24 25 24 24 25 25 25 25 25 25 26 28 30 27 22 17 14 14 14
18 20 21 21 21 21 21 22 23 23 23 23 23 23 23 24 24 24 23 23 22 23 23 24 25 25 25 25 25 24 25 25 24 24 26 28 25 23 21 19 17 17
19 21 22 22 21 20 21 22 23 23 23 24 25 26 27 28 29 29 28 28 27 26 25 25 26 25 24 23 22 22 22 23 22 21 23 25 24 22 22 20 19 19
21 22 22 21 20 21 22 23 24 25 25 27 29 30 30 31 31 31 30 29 29 29 28 28 27 26 26 25 23 21 20 20 19 20 22 23 23 21 20 19 20 20
23 24 24 24 24 24 26 27 28 28 29 30 32 32 31 31 31 31 30 30 30 30 29 28 28 27 27 26 25 22 20 20 20 23 23 21 21 21 20 20 21 21

ECMWFNIL_700_spd_045.txt.gz
Wind_Speed
16 15 15 15 15 12 9 7 6 5 5 6 5 2 1 2 2 3 3 2 2 2 2 3 3 4 4 4 4 4 4 4 4 4 4 4 3 4 4 3 3 4
16 15 15 16 16 14 11 8 6 4 4 5 5 4 1 2 3 4 3 3 3 3 4 4 4 5 5 5 5 5 5 4 4 4 4 4 4 4 5 5 5 6
15 14 15 17 17 15 12 9 6 4 3 3 4 3 2 3 5 6 5 5 5 6 6 6 6 7 8 8 8 7 7 6 6 5 5 5 5 5 5 5 6 6
14 14 17 18 18 15 12 10 6 3 2 2 3 3 1 4 6 8 7 7 8 8 8 8 9 10 10 11 11 11 10 10 9 9 8 7 7 7 7 6 6 5
14 16 18 19 18 15 13 10 6 3 1 1 1 1 2 5 8 9 9 9 10 10 10 10 11 11 11 11 11 11 11 11 11 11 10 9 10 9 9 9 8 7
16 17 19 19 18 16 13 10 6 3 2 1 1 1 3 6 9 11 11 11 11 11 11 11 10 10 10 10 10 9 9 9 9 9 9 8 9 9 9 9 8 8
17 18 19 19 18 15 13 10 6 4 3 3 3 3 5 7 9 11 12 12 11 11 10 9 9 8 7 7 7 7 7 6 6 6 6 5 6 7 6 5 5 5
19 19 19 19 17 15 13 9 7 5 5 4 4 5 6 7 9 11 12 12 11 10 9 8 7 6 5 5 4 4 4 3 2 3 2 2 3 3 3 2 2 1
20 20 20 19 18 17 13 10 8 7 6 5 5 6 8 8 9 10 10 11 11 10 9 8 7 5 4 3 2 2 2 2 2 2 2 2 1 1 1 1 1 2
23 24 24 21 19 17 13 9 7 6 6 6 6 7 9 9 8 9 10 10 10 10 9 8 7 6 5 5 5 6 6 6 5 6 6 5 4 4 4 4 4 4
29 29 26 22 18 14 10 7 6 5 5 6 8 9 9 10 9 9 10 10 10 9 9 9 8 8 8 9 9 10 10 10 10 9 9 9 10 9 8 8 8 8
28 26 22 18 15 10 7 6 6 6 6 6 8 9 10 11 11 11 10 9 9 9 9 9 9 9 10 12 13 13 13 12 13 13 12 12 12 12 12 13 14 13
24 20 16 14 13 11 9 9 8 7 6 6 6 7 8 10 11 11 10 9 9 10 10 9 8 10 11 12 13 13 13 13 14 14 13 12 12 14 15 16 16 16
19 16 14 13 14 14 13 12 11 10 8 7 7 7 6 7 8 9 9 9 10 11 10 8 7 8 9 9 10 11 13 15 15 13 11 12 14 15 15 14 13 14
15 14 14 15 16 15 13 12 12 11 9 8 7 6 6 5 6 7 7 7 10 10 9 8 7 7 8 8 9 11 14 17 17 15 13 14 15 15 15 14 14 15
15 15 15 16 17 16 14 13 12 11 10 8 7 7 7 6 7 7 7 8 10 10 9 9 8 9 10 11 12 13 15 18 18 17 17 17 17 17 17 17 17 18
15 15 15 16 17 18 18 17 13 10 9 8 7 7 7 7 8 8 10 11 12 12 12 12 11 12 13 13 14 15 17 18 18 17 17 18 19 19 19 19 19 20
14 15 16 17 18 20 21 18 13 9 8 6 6 7 8 9 9 10 11 12 13 14 14 14 14 15 16 17 17 18 19 20 20 20 19 19 19 19 19 20 20 20
11 10 11 13 14 15 14 10 8 7 7 6 6 7 8 10 10 10 11 13 14 14 15 15 15 16 17 19 20 20 21 22 23 22 21 21 21 20 20 21 21 20
11 10 9 8 7 7 6 5 6 8 7 7 8 9 9 10 10 11 12 14 15 16 17 16 15 16 17 19 20 20 21 23 23 22 21 22 22 23 24 23 22 21
16 15 14 12 9 8 8 8 8 8 8 9 10 11 11 12 12 13 14 15 17 18 18 16 14 14 16 18 18 19 20 22 23 23 23 24 25 26 26 26 25 23
14 13 12 11 9 8 9 8 8 9 10 12 13 13 13 13 14 15 15 16 16 17 18 17 15 14 16 18 19 20 21 22 23 24 24 25 26 27 27 26 25 24
9 8 8 7 6 7 9 11 12 13 14 15 15 16 16 15 15 16 16 17 18 19 21 21 20 19 20 21 22 23 23 23 23 24 24 25 26 26 26 25 22 20
9 9 8 8 9 10 12 13 15 17 18 18 18 19 19 19 19 19 20 22 22 23 25 26 26 25 24 24 24 24 25 24 24 24 24 26 28 27 26 24 20 18
13 13 13 13 13 13 13 15 16 18 19 20 22 23 24 25 25 25 26 27 27 28 29 29 29 28 26 25 24 23 22 22 23 23 24 27 28 27 26 25 21 21
19 20 20 19 18 18 18 19 20 21 23 24 26 27 29 29 30 30 31 31 31 31 30 30 29 28 26 24 22 21 21 21 21 21 23 25 26 26 25 24 23 24

ECMWFNIL_700_spd_048.txt.gz
Wind_Speed
20 19 18 17 15 12 9 6 4 3 2 1 1 1 2 6 7 6 5 3 4 4 5 5 6 7 7 8 8 7 7 7 7 7 7 6 6 6 5 3 3 4
20 20 20 18 16 13 9 7 5 3 1 1 1 2 4 7 7 6 4 4 5 6 7 7 7 8 8 8 8 8 8 8 7 7 6 6 6 6 5 3 3 3
21 21 21 19 15 13 10 8 6 3 2 2 2 2 5 7 7 6 5 5 7 8 9 9 9 9 10 9 9 9 9 9 8 7 6 6 6 6 5 4 2 2
22 22 22 19 16 14 11 9 7 4 3 3 2 2 5 7 8 7 7 8 9 10 11 12 11 11 11 11 11 11 11 10 10 9 7 6 6 6 6 5 4 2
25 26 24 21 18 16 12 9 8 5 4 4 2 2 5 7 8 8 9 10 12 13 14 14 14 13 13 13 13 12 12 11 10 10 9 8 7 6 6 7 6 5
29 29 27 23 19 15 12 10 9 6 5 5 3 3 5 7 8 9 11 12 14 14 15 15 15 14 14 13 13 13 12 11 11 11 10 8 7 7 6 6 6 6
30 28 26 23 19 14 12 12 9 7 7 6 4 5 6 7 8 10 12 13 14 15 15 15 14 14 13 12 12 12 11 11 11 10 9 8 7 7 6 6 5 5
29 27 25 22 18 15 13 12 9 8 8 7 6 6 8 9 10 11 13 14 14 14 14 14 13 12 11 10 10 9 9 8 8 8 7 6 6 6 6 5 4 4
28 27 25 20 17 15 13 12 10 9 9 8 8 8 10 11 11 12 13 14 14 13 13 12 12 11 10 9 8 6 6 5 5 5 4 4 4 4 4 4 3 3
30 29 25 21 18 15 13 12 11 10 10 10 10 11 12 12 13 13 13 13 13 12 11 11 10 9 9 8 7 6 5 5 5 6 5 5 4 3 3 3 3 4
30 30 27 24 20 16 15 14 11 11 12 12 12 13 14 14 13 13 13 12 12 11 10 10 9 9 8 8 7 7 7 8 9 8 7 7 6 6 6 5 6 7
28 27 24 22 20 18 16 14 13 13 13 12 12 14 15 15 14 13 13 12 12 11 11 11 10 10 9 9 9 9 10 11 11 10 10 9 9 9 8 8 9 10
25 23 19 19 20 19 16 14 14 15 13 12 13 14 15 16 15 15 14 14 13 13 12 12 12 12 11 11 11 11 11 11 11 11 11 10 10 10 11 11 12 13
21 20 18 19 20 19 17 15 15 15 14 12 12 12 14 16 17 16 16 16 15 15 15 14 14 13 12 12 12 13 12 12 12 12 11 11 12 12 12 12 13 13
15 15 16 18 20 20 18 17 16 15 14 12 10 10 12 14 17 17 17 17 16 16 16 15 14 13 13 12 12 12 12 12 12 12 12 13 14 14 14 14 15 14
11 13 15 18 20 22 22 20 17 16 15 14 12 11 11 13 15 16 16 15 15 15 14 13 13 13 13 13 13 13 12 13 14 14 14 16 17 17 17 17 17 17
15 16 17 18 21 24 24 21 19 17 17 16 14 13 13 13 14 14 15 15 15 15 14 13 12 13 14 15 15 15 15 15 15 16 16 17 18 18 18 18 18 18
18 19 20 20 21 24 24 22 20 19 19 18 16 16 16 16 16 16 16 16 16 15 14 14 14 15 16 17 18 19 19 19 18 18 18 18 18 19 19 19 19 19
20 21 21 22 23 24 25 23 21 19 19 18 18 18 17 17 16 16 16 16 16 16 15 15 15 16 17 18 19 20 21 21 21 21 20 20 20 21 22 22 21 20
21 21 22 23 24 25 26 26 24 21 20 19 19 17 16 16 16 16 15 15 15 15 15 15 15 16 17 18 19 20 21 22 22 22 21 21 22 23 24 24 23 23
21 22 23 25 25 26 27 28 27 25 23 23 21 20 19 19 17 16 15 15 15 16 15 15 16 17 18 19 19 20 20 21 21 21 21 22 23 24 25 25 25 25
20 21 22 23 23 23 24 25 25 25 25 24 23 22 21 20 18 17 17 17 18 18 17 16 17 17 18 18 19 19 20 20 21 22 22 23 24 25 25 25 25 25
19 18 18 18 19 19 20 21 22 23 23 22 21 20 19 18 19 19 19 20 20 20 19 18 17 18 19 19 20 21 22 23 24 25 25 26 26 26 26 25 24 23
20 19 18 19 19 20 21 21 22 21 20 20 19 19 19 20 20 21 21 22 22 22 22 22 21 21 22 22 23 24 25 26 27 28 28 28 29 29 27 25 24 24
20 20 19 19 19 19 20 20 21 21 21 21 21 21 22 22 23 23 23 24 25 25 26 26 26 26 26 26 26 26 27 28 29 30 30 31 31 31 29 27 25 24
18 18 18 18 18 19 19 20 21 22 23 23 24 24 24 25 25 26 26 27 28 29 31 31 31 31 31 30 29 28 29 30 30 31 31 31 31 31 30 28 25 23

ECMWFNIL_700_spd_051.txt.gz
Wind_Speed
21 18 15 13 11 10 9 8 8 8 7 5 5 6 7 6 6 6 5 5 4 3 5 6 6 6 6 6 6 6 6 6 6 5 5 5 5 6 7 7 7 7
21 18 16 14 12 11 10 9 9 9 8 7 6 6 6 5 6 6 6 5 4 4 5 6 7 7 8 8 8 8 8 7 7 6 5 5 5 6 6 6 6 7
21 19 17 15 13 12 10 10 9 9 8 8 7 7 6 5 5 6 6 5 4 4 5 6 7 8 8 9 9 9 8 8 7 6 6 6 6 6 7 7 6 6
21 19 17 16 15 13 11 9 8 8 8 8 8 8 7 5 6 7 6 6 5 6 7 8 8 9 9 10 10 9 9 8 8 7 6 6 5 5 6 6 6 5
21 20 19 18 16 14 13 12 10 9 9 8 8 7 7 6 6 7 7 7 7 8 9 10 10 10 11 11 11 10 10 9 9 8 7 6 5 5 5 5 5 5
23 22 21 20 18 16 18 18 14 12 10 9 7 6 6 6 6 7 7 8 9 11 11 12 12 12 12 11 11 11 10 10 9 8 8 7 6 5 4 4 5 5
25 24 24 22 20 20 21 20 17 14 12 9 7 6 6 7 7 7 8 10 11 13 13 13 13 13 12 12 11 11 10 9 8 8 8 7 5 4 4 4 4 4
29 28 26 25 22 22 23 21 17 16 13 9 7 8 8 8 8 8 11 13 14 14 14 14 14 13 13 12 11 10 9 8 7 7 6 5 4 3 2 2 2 2
29 28 28 27 25 25 26 22 17 17 14 10 9 10 10 10 9 10 12 14 14 15 15 14 14 13 12 11 11 10 8 7 5 5 4 3 2 1 1 1 1 1
28 29 29 29 27 27 27 21 18 18 15 11 11 11 12 11 11 11 12 13 14 13 13 13 12 12 11 10 9 9 8 7 5 4 3 3 2 2 3 3 4 4
30 31 31 29 27 27 25 21 21 20 16 13 12 12 13 13 13 12 13 13 14 13 12 12 11 10 10 9 8 8 7 6 5 4 4 5 4 4 5 6 7 7
31 32 31 31 30 28 25 24 24 21 16 13 13 13 14 15 15 14 14 14 14 13 13 12 11 10 9 9 8 8 7 7 7 7 7 7 7 8 9 11 11 10
30 31 31 30 31 30 29 27 25 20 16 13 13 14 15 16 17 16 15 15 15 14 13 13 13 12 11 10 10 10 10 9 9 9 9 9 10 11 13 14 14 13
29 31 32 31 31 32 30 27 23 19 16 16 16 16 17 18 18 18 18 17 17 16 15 15 14 14 13 13 13 12 12 11 11 11 11 10 11 12 13 14 14 14
23 26 28 28 29 30 27 25 22 20 18 19 19 18 18 19 20 20 20 19 18 17 16 16 15 15 15 14 13 13 13 13 13 13 12 12 13 14 14 14 14 14
15 18 19 19 21 24 26 25 23 21 20 21 21 20 19 20 21 22 21 20 20 19 18 17 17 17 17 16 15 14 14 14 14 14 14 14 15 16 17 17 17 17
13 14 14 15 20 24 25 26 25 23 22 21 21 20 20 20 21 22 22 22 22 21 21 20 19 19 19 18 17 16 16 16 16 16 17 17 18 18 19 19 20 20
14 14 15 19 22 23 24 24 23 22 22 22 22 21 20 20 21 21 22 23 23 22 22 22 21 21 20 20 19 19 19 19 19 20 20 20 20 21 21 21 21 20
16 16 18 21 22 23 25 24 22 21 22 24 24 22 20 20 21 21 22 23 23 23 23 22 22 22 22 22 21 21 21 21 22 22 23 23 23 23 24 23 23 22
17 17 19 22 23 24 26 26 24 23 23 23 22 21 22 22 22 23 23 23 23 23 23 23 23 23 23 23 22 22 23 23 23 24 24 25 25 26 26 25 24 24
18 18 20 22 23 25 26 27 27 27 26 23 20 20 21 22 23 24 23 23 22 22 22 22 22 23 23 23 23 23 23 24 24 24 24 25 25 26 26 25 25 24
18 19 19 21 23 24 25 27 28 28 27 24 22 21 21 22 23 23 23 23 23 23 23 23 23 24 24 23 23 23 24 25 25 26 26 25 25 25 26 25 25 25
17 19 20 21 23 24 24 25 26 26 26 25 24 23 22 23 24 24 23 24 24 24 24 24 25 26 25 25 25 25 26 27 27 27 27 26 26 26 26 27 27 27
17 19 20 20 21 22 23 24 25 26 27 27 26 26 25 25 26 25 25 26 26 26 26 26 26 27 26 26 26 27 27 28 28 28 28 28 28 28 29 30 30 30
16 17 18 18 19 20 22 23 23 24 25 25 26 26 26 26 26 27 27 28 28 28 28 27 27 27 28 28 28 29 30 30 31 31 31 31 31 32 33 33 33 33
18 17 17 18 19 20 22 22 23 23 23 24 24 25 26 27 28 29 29 30 30 30 30 30 29 29 30 31 31 32 33 33 34 35 34 34 35 35 36 36 36 35

ECMWFNIL_700_spd_057.txt.gz
Wind_Speed
23 21 21 19 17 15 13 10 8 5 3 2 3 4 5 6 7 6 5 4 2 2 2 3 3 3 4 4 5 6 8 10 11 12 13 14 13 13 12 11 11 10
22 21 21 19 16 14 12 10 7 5 3 3 3 5 5 6 7 7 6 4 3 3 3 3 3 4 4 4 4 6 8 10 11 12 13 14 14 14 13 12 11 10
23 22 21 19 17 14 12 9 7 5 4 4 4 5 6 6 6 7 7 5 3 3 4 4 4 4 4 4 5 6 7 8 9 10 11 11 12 12 12 12 11 10
23 22 22 20 17 14 11 10 8 7 6 6 6 6 6 7 7 7 7 5 4 4 4 5 5 5 5 6 6 6 7 8 8 9 9 9 9 9 10 10 10 10
23 23 22 19 16 14 12 11 10 9 8 8 7 7 7 8 8 8 8 6 4 4 5 5 6 6 6 7 7 7 8 8 8 9 9 9 9 9 9 9 10 10
23 22 21 19 16 15 14 13 13 12 10 9 9 9 8 9 9 8 8 6 5 5 5 6 7 7 7 7 8 8 8 8 9 9 9 9 9 9 9 9 10 11
23 23 22 20 18 18 17 16 15 14 12 11 11 11 9 9 9 8 7 6 6 7 6 7 8 8 8 8 8 8 9 9 10 10 9 9 8 8 8 9 10 11
24 24 23 22 21 20 20 19 17 15 13 13 13 12 11 10 10 8 7 7 7 8 8 7 8 9 9 9 9 9 10 11 11 11 11 10 10 10 10 10 11 12
25 25 24 23 23 23 23 21 18 16 15 14 14 14 13 11 10 8 7 7 8 9 8 8 9 10 10 10 11 11 11 11 12 12 11 11 11 11 11 11 11 12
26 26 25 24 24 24 23 21 18 17 17 16 15 15 15 13 11 8 6 7 8 9 9 9 10 11 11 12 12 12 12 12 12 12 11 11 10 10 10 10 10 10
27 27 26 25 25 25 24 22 19 18 18 18 18 18 17 14 12 8 6 7 9 9 10 11 12 12 12 12 12 12 11 11 11 11 11 10 10 9 9 8 8 7
29 28 27 25 25 26 26 24 22 21 21 21 20 19 18 16 14 10 7 8 10 10 11 12 12 12 12 12 12 11 10 10 10 10 10 9 9 8 8 7 6 6
31 30 28 26 27 27 27 26 24 22 22 22 22 21 20 19 17 12 9 10 12 12 12 12 12 12 12 11 11 10 9 9 9 9 9 8 8 7 7 7 7 7
31 32 30 28 28 28 27 26 25 24 24 24 24 24 23 22 20 15 12 12 14 14 14 14 14 13 12 11 11 10 9 9 8 8 8 8 8 8 8 8 8 8
29 31 31 30 29 29 28 27 27 26 27 27 27 27 26 25 23 18 15 16 17 17 16 16 15 14 14 13 12 12 11 10 9 9 9 9 9 10 10 10 10 10
27 28 29 29 30 30 31 32 31 29 28 28 29 29 28 26 24 21 19 19 20 19 19 18 17 17 16 15 15 14 13 12 11 11 11 10 11 11 11 12 12 12
26 27 27 29 31 32 33 34 31 29 30 32 31 29 29 27 26 25 22 21 22 21 21 20 20 19 18 17 16 16 15 15 14 13 13 13 13 13 13 14 14 14
24 26 28 29 31 32 34 32 26 24 27 32 33 32 31 29 29 28 24 22 22 22 22 22 22 21 20 19 19 19 18 17 17 16 16 15 16 15 16 16 16 16
21 23 23 23 23 23 25 24 21 19 21 25 27 29 31 33 33 30 25 21 21 23 23 23 23 22 21 21 21 21 20 19 19 18 18 19 19 19 18 18 19 19
15 16 16 16 15 14 16 18 18 19 20 21 21 21 26 30 30 26 23 21 22 24 24 24 24 23 23 22 22 22 22 21 21 21 21 22 22 22 21 21 21 21
12 13 14 14 13 12 13 14 15 16 17 17 17 16 18 22 24 23 22 22 23 24 25 25 25 24 24 24 24 24 24 24 24 24 24 24 24 24 24 23 23 24
10 11 12 12 11 11 11 12 11 10 11 13 15 16 18 20 21 21 21 23 24 26 26 26 26 26 26 26 26 26 26 26 27 27 27 26 26 26 26 26 26 26
9 8 9 10 10 10 11 12 11 10 10 13 15 17 17 19 22 23 23 23 25 26 26 26 27 27 27 28 28 28 29 29 29 28 28 27 27 27 28 28 28 27
7 7 8 9 9 9 10 12 12 11 12 14 15 16 18 18 20 23 24 24 24 25 26 27 27 28 28 29 29 30 30 30 29 29 28 28 29 29 29 29 29 29
6 6 7 8 8 9 11 13 13 13 13 14 15 17 19 18 18 19 21 22 23 25 27 29 29 29 29 29 29 30 30 30 29 29 29 30 30 30 30 30 30 31
5 6 7 8 8 9 10 11 12 13 14 15 16 18 19 19 20 21 22 23 25 27 29 29 27 26 27 28 28 29 30 30 30 30 31 31 31 32 32 32 33 33

ECMWFNIL_700_spd_060.txt.gz
Wind_Speed
26 25 24 22 21 20 18 16 14 11 8 6 3 1 1 1 1 2 2 3 5 5 4 3 2 3 3 4 6 7 7 9 10 11 13 14 13 12 11 10 10 10
26 27 25 23 22 20 19 17 14 11 8 5 2 1 1 2 1 2 3 2 4 4 4 3 2 2 3 4 6 7 7 8 9 10 12 12 12 11 10 9 9 9
27 27 25 23 22 21 19 17 14 11 8 4 2 1 2 3 3 2 3 1 2 4 4 3 2 2 3 3 5 6 7 8 8 9 10 10 11 11 10 10 10 10
29 26 25 24 23 21 19 16 13 11 7 4 3 2 2 3 4 3 3 2 1 3 3 3 2 2 3 4 5 5 6 7 8 9 9 9 9 10 11 11 11 12
29 26 25 25 23 21 19 16 13 11 7 4 4 4 3 3 4 4 3 2 1 3 3 3 3 3 4 4 5 5 6 6 7 7 8 8 8 8 10 12 13 14
29 27 27 26 24 22 20 16 14 11 8 6 5 5 5 5 5 5 4 3 1 3 4 3 4 4 5 5 6 6 7 7 7 8 9 9 9 9 8 11 12 12
29 28 27 27 25 23 20 17 14 11 9 7 6 7 6 6 6 6 5 3 2 4 5 4 5 5 6 6 7 8 8 9 9 9 10 10 11 12 10 10 11 11
29 28 28 28 25 23 20 17 15 13 11 9 8 8 8 8 8 7 6 4 3 4 6 5 5 6 7 7 8 9 9 10 10 10 10 10 11 13 12 11 12 12
29 29 29 27 25 23 21 19 17 15 13 12 10 10 10 9 9 8 7 6 4 5 6 6 6 7 8 9 9 10 10 10 10 10 11 10 10 11 12 12 11 11
29 30 29 27 26 24 22 20 18 16 15 14 13 12 12 11 10 9 8 6 5 5 6 6 7 8 9 10 10 10 10 10 10 10 11 11 10 10 10 11 10 10
30 29 28 28 27 25 24 22 20 18 16 16 15 15 14 13 11 9 8 7 5 5 6 6 7 9 10 11 11 11 11 11 11 11 11 10 10 10 10 10 10 9
29 28 27 27 26 26 25 23 21 19 18 19 18 17 16 15 12 10 8 8 7 6 7 7 9 10 11 13 13 13 13 12 12 11 11 11 10 10 10 9 9 9
26 25 26 25 25 25 25 23 22 22 21 21 20 19 18 16 13 11 9 9 8 8 8 9 10 12 13 14 15 15 14 13 12 12 11 11 10 10 10 10 10 10
25 25 25 25 24 25 25 24 24 24 23 22 21 20 19 17 14 12 11 11 10 10 11 12 13 14 15 16 16 16 15 14 13 13 12 12 11 11 11 11 12 12
27 25 25 25 24 24 26 26 25 26 25 24 22 21 19 18 16 15 14 13 13 12 13 14 16 17 17 18 18 18 17 15 15 14 13 13 12 12 12 13 14 14
29 27 27 27 26 25 27 27 27 27 26 25 24 22 21 20 19 18 17 16 15 16 16 17 18 18 18 19 18 18 17 16 15 14 14 13 13 13 13 14 14 14
28 28 29 28 28 27 27 28 28 28 28 27 25 24 23 23 22 21 19 17 18 19 20 20 20 20 20 20 19 18 17 16 15 15 14 14 14 14 14 13 13 13
26 27 29 30 30 30 29 29 30 30 29 29 28 27 27 26 24 23 21 20 21 22 22 22 21 22 22 21 20 19 17 16 16 16 15 15 14 14 14 13 13 13
24 24 26 27 28 29 29 30 30 28 28 29 30 31 30 29 28 26 24 22 23 24 24 24 23 23 23 22 21 19 18 18 17 17 16 16 15 15 15 15 16 16
22 22 21 22 23 25 26 27 25 23 23 24 26 26 26 26 29 30 28 26 26 29 30 29 27 25 24 23 22 21 20 20 19 18 18 18 18 18 18 18 19 19
21 20 19 18 19 19 20 18 15 14 15 17 18 20 20 21 24 26 27 29 32 34 33 30 27 25 25 25 24 23 23 22 22 21 21 22 22 22 22 22 22 21
15 15 15 15 14 13 13 12 11 12 14 16 18 20 20 19 19 19 23 28 30 30 27 24 22 23 26 27 26 26 26 25 25 25 24 25 25 24 24 24 24 24
12 13 13 13 13 12 11 11 12 12 11 11 12 14 15 15 15 14 17 21 23 24 22 20 20 23 26 27 27 28 28 27 27 27 26 27 27 26 26 26 27 27
12 12 12 11 11 11 11 11 10 9 7 4 4 8 11 11 10 10 12 14 17 20 21 21 22 24 26 27 28 29 29 29 29 28 28 28 28 28 28 28 29 29
11 10 10 10 9 9 9 9 10 10 8 5 4 6 9 10 10 11 13 15 17 20 22 23 25 26 27 28 29 29 30 30 31 31 30 30 30 31 31 31 31 31
10 8 8 8 8 7 7 8 9 9 8 7 6 7 9 11 12 13 14 15 17 20 22 24 25 26 27 27 28 29 30 31 32 33 33 32 32 32 32 31 31 31

ECMWFNIL_700_spd_063.txt.gz
Wind_Speed
19 21 27 29 26 24 22 20 19 17 14 12 10 7 5 4 4 4 4 5 7 8 8 7 8 9 9 9 9 8 7 7 9 10 10 10 10 11 11 12 11 10
20 24 30 29 27 25 23 21 19 17 14 12 9 7 5 4 3 3 3 3 5 7 7 7 7 8 8 8 9 9 7 7 8 9 9 9 10 10 11 12 11 10
22 28 32 31 28 26 24 22 20 17 14 11 9 7 5 4 2 1 1 1 4 6 7 7 6 6 7 8 9 9 8 8 8 9 9 8 9 10 11 12 11 11
22 30 32 31 29 27 25 23 20 18 15 12 9 7 6 4 2 1 0 0 2 5 7 6 5 5 6 7 8 9 10 10 10 10 10 9 10 9 10 10 11 11
23 29 32 33 32 29 26 24 21 19 16 12 10 8 6 4 2 2 1 1 1 4 6 6 5 4 5 6 7 8 10 10 11 11 12 11 10 9 8 8 9 10
26 31 36 36 34 30 27 24 22 19 16 12 10 8 6 4 1 1 2 1 1 3 5 6 6 5 5 5 6 7 8 9 10 11 12 12 10 8 6 6 7 8
28 35 38 37 33 30 28 24 22 20 16 13 10 8 6 3 1 2 2 2 2 3 4 6 6 5 5 5 6 7 7 7 8 10 11 12 11 9 8 6 6 7
30 36 36 33 32 31 28 25 22 20 17 14 11 8 6 3 1 2 3 3 2 3 4 6 5 5 5 5 6 6 6 7 7 8 10 11 12 11 9 8 8 7
31 34 34 32 31 31 28 26 23 21 18 16 12 9 7 4 2 2 3 3 3 3 5 6 5 5 5 6 6 6 7 6 6 7 9 11 12 12 10 10 9 8
31 35 35 33 32 30 28 26 24 22 20 17 13 10 7 6 4 3 3 3 3 3 5 6 6 6 6 6 7 7 7 7 7 8 10 11 13 13 12 11 11 10
32 37 37 33 31 30 29 27 25 23 19 16 14 11 9 8 6 5 4 4 3 4 5 6 6 6 6 7 7 8 8 9 9 10 10 11 12 12 12 12 12 11
34 36 34 30 30 31 29 28 26 22 18 17 15 13 11 10 8 7 6 5 4 4 5 6 7 7 7 8 9 9 10 11 11 11 11 11 11 11 11 11 11 11
31 31 29 28 30 31 30 29 26 22 19 18 16 15 13 12 10 9 8 7 6 5 5 7 8 8 9 9 10 11 12 12 11 11 11 11 11 10 10 10 10 9
28 28 29 29 30 31 29 28 26 23 21 20 18 17 16 14 12 11 10 10 8 6 5 7 9 10 11 12 13 13 13 12 12 12 11 10 10 9 8 8 8 8
30 30 31 31 30 29 28 26 25 23 22 22 21 19 17 16 15 14 14 13 12 9 7 8 11 13 14 15 16 16 15 14 13 13 12 11 10 9 9 9 9 10
31 30 30 29 29 29 28 26 25 23 23 23 22 20 19 18 18 17 16 16 15 13 11 10 11 13 15 17 17 18 17 17 15 14 13 12 11 11 10 10 11 13
31 30 29 29 29 29 29 27 25 24 24 24 23 21 20 20 20 20 20 19 19 17 14 12 13 15 17 18 18 19 19 18 17 16 14 13 12 12 12 13 14 15
31 31 31 31 30 30 31 30 27 26 25 24 22 21 21 21 21 21 22 22 21 19 16 15 15 17 19 20 20 21 20 17 17 17 16 15 14 13 14 14 15 16
32 32 33 32 30 30 30 29 27 27 26 24 22 21 21 22 23 23 23 23 23 21 18 17 18 21 23 23 23 23 21 19 18 17 16 16 16 15 15 16 16 15
32 32 33 31 28 28 27 26 26 27 26 25 26 25 24 25 25 25 25 24 25 23 20 19 22 25 26 26 26 25 23 21 20 18 17 18 18 17 18 18 17 17
30 31 31 30 28 28 27 25 24 24 24 26 28 29 30 31 31 30 29 29 28 27 24 23 24 27 29 28 28 27 25 23 22 21 20 20 21 20 20 20 20 20
24 24 24 25 25 25 24 23 22 20 21 24 24 24 26 28 30 31 31 31 29 27 26 26 26 29 31 31 32 32 28 25 23 23 23 23 24 24 23 23 24 24
19 17 18 19 20 19 17 17 17 16 16 16 15 16 18 19 20 22 23 23 22 22 24 27 29 31 34 35 36 34 29 25 23 25 25 26 27 27 26 26 27 27
17 16 15 15 15 14 13 12 13 12 10 9 9 10 12 13 14 14 14 16 17 18 20 25 29 30 31 33 33 30 27 23 23 26 29 28 29 29 29 29 30 29
13 13 12 12 12 11 12 12 12 10 8 7 5 3 5 6 7 7 7 8 9 10 11 16 21 23 23 24 24 24 23 22 24 28 31 30 30 31 31 31 32 32
12 12 11 11 11 10 11 11 10 10 9 8 4 3 4 7 7 7 7 8 8 9 10 12 15 17 18 20 20 21 23 24 27 29 31 32 32 32 33 33 35 36

ECMWFNIL_700_spd_069.txt.gz
Wind_Speed
14 14 15 16 17 17 19 21 22 22 21 20 18 17 16 14 13 12 12 12 12 13 14 14 13 14 14 12 10 10 9 8 9 9 10 10 10 11 10 10 10 9
16 16 16 18 18 19 21 23 23 23 21 20 19 18 16 14 13 12 11 11 11 13 13 13 13 14 14 12 11 11 10 9 9 9 9 9 9 10 10 9 9 9
18 18 18 19 19 20 23 25 25 23 21 20 19 18 16 14 13 12 11 11 10 11 12 12 13 13 13 12 12 12 11 10 10 9 9 9 9 10 10 10 9 10
18 19 19 20 20 21 24 26 26 24 22 21 20 19 17 14 13 12 11 10 9 10 11 11 12 12 12 13 13 13 12 12 11 10 9 10 10 10 10 10 10 10
19 20 20 21 22 22 24 26 27 25 24 22 20 18 16 14 13 12 10 10 9 9 10 11 10 10 11 12 13 13 13 13 12 11 10 10 9 10 10 10 10 11
22 23 21 22 22 22 23 27 28 26 24 23 21 17 15 13 12 11 10 10 9 9 10 9 9 10 11 11 12 12 13 13 13 11 11 11 10 10 10 10 10 11
24 24 23 23 23 22 24 29 29 27 25 23 20 17 15 14 13 11 11 10 9 9 8 8 8 9 10 11 11 12 13 14 14 13 13 12 11 11 10 10 10 11
24 24 23 23 24 24 27 30 30 27 25 23 19 17 16 15 13 12 11 10 10 9 8 8 8 7 9 10 11 11 12 13 14 14 13 13 13 13 11 10 10 10
25 24 24 24 24 26 29 31 29 27 25 23 20 19 18 15 13 12 11 10 9 8 8 7 6 6 8 9 9 11 12 13 12 12 13 14 14 14 12 10 11 10
25 25 25 25 26 28 31 31 29 27 26 24 21 20 18 16 14 12 11 11 10 9 8 6 6 6 6 7 9 11 12 10 9 9 12 15 15 14 12 11 11 11
25 25 25 27 27 30 34 32 29 28 27 24 22 21 18 16 14 13 11 11 10 9 7 6 6 6 6 7 9 10 10 9 9 10 13 15 15 15 13 11 12 12
25 25 26 29 30 32 35 33 29 29 27 25 23 21 18 16 14 12 11 11 10 9 8 7 7 6 7 8 9 10 10 10 11 12 13 14 16 16 14 13 13 13
25 25 27 31 31 34 36 33 30 31 29 25 23 21 19 17 15 13 12 11 10 9 8 6 5 4 5 7 9 10 12 12 12 13 13 15 16 16 15 14 14 13
24 25 27 31 31 34 37 33 30 31 29 26 24 22 20 18 16 15 14 11 9 8 7 5 3 3 3 5 8 11 13 14 14 13 12 13 15 16 16 15 14 14
24 26 28 31 31 33 36 34 31 31 29 27 25 23 21 20 19 18 14 11 9 8 7 6 4 3 3 4 6 10 12 14 14 13 11 12 13 15 15 15 14 13
25 27 29 32 33 35 36 34 33 32 28 27 27 25 24 23 21 19 15 13 11 8 7 7 6 5 4 4 5 8 11 13 14 13 13 13 12 12 14 14 13 13
24 26 29 32 34 37 37 35 35 35 30 28 28 27 26 24 22 19 16 14 11 9 9 8 8 6 5 4 5 7 10 13 14 14 15 14 12 11 13 14 13 13
23 26 30 33 35 37 38 38 40 38 34 30 29 28 26 24 22 20 18 15 13 12 11 10 9 8 6 6 6 7 10 13 14 16 17 16 15 15 16 16 15 15
24 27 30 33 35 35 37 40 41 40 37 33 30 28 26 24 22 21 19 17 15 14 13 11 11 10 9 8 8 9 12 14 15 16 17 18 18 18 17 17 17 16
23 25 28 32 34 34 34 38 39 39 38 35 31 28 26 24 22 21 20 18 17 17 16 14 14 13 12 12 11 12 14 16 17 18 18 18 19 19 18 18 17 15
23 25 27 30 31 31 32 37 40 40 39 37 32 28 26 25 23 23 22 21 19 19 18 17 17 17 17 16 15 15 16 18 19 20 20 20 20 20 19 19 18 16
23 26 28 29 30 30 31 36 40 40 37 35 33 30 29 28 26 25 24 23 23 22 21 20 20 20 20 18 18 17 18 19 20 21 21 21 21 21 20 19 19 18
21 24 27 29 31 32 33 34 36 36 35 36 35 33 32 30 29 28 26 26 25 25 24 24 24 24 24 22 21 19 18 19 20 22 23 23 23 22 21 20 20 19
21 22 24 25 27 31 32 32 32 33 33 34 33 33 33 31 29 28 27 26 26 26 27 26 26 26 26 25 24 23 22 23 24 24 25 25 24 23 23 23 22 23
24 25 25 24 27 33 35 34 33 32 31 31 31 31 31 31 30 29 29 28 27 26 26 25 25 25 25 25 24 25 26 26 26 25 25 27 27 26 26 27 27 27
20 21 22 23 27 32 35 36 35 33 32 32 31 29 29 31 32 31 29 27 25 22 20 20 20 20 20 21 21 22 23 24 23 24 26 29 30 30 31 32 32 32

ECMWFNIL_700_spd_072.txt.gz
Wind_Speed
17 14 12 13 17 18 18 19 20 20 20 19 18 18 17 17 17 17 17 17 16 15 15 15 14 14 14 14 13 12 12 12 12 12 12 13 13 14 13 13 13 12
20 16 14 13 16 18 19 19 19 20 20 19 19 19 18 17 17 17 17 17 16 14 15 15 15 15 14 14 13 12 12 12 11 11 11 11 11 12 13 13 13 13
20 17 15 14 15 18 19 19 19 21 21 21 20 20 18 17 17 17 16 15 15 14 15 15 16 16 14 14 14 12 12 12 12 11 11 11 11 11 12 13 13 14
20 18 16 15 16 18 20 20 21 23 23 22 21 19 18 18 17 17 16 15 14 14 15 15 16 16 15 15 14 14 13 13 13 12 12 12 12 12 12 13 14 14
19 18 18 17 17 19 21 21 22 22 21 20 20 19 18 18 17 16 15 14 14 14 14 15 15 15 16 16 16 15 15 15 14 13 13 13 13 13 13 13 14 14
19 19 20 19 18 19 21 22 22 22 21 21 20 19 18 17 16 16 14 13 14 15 14 14 14 15 15 16 16 16 16 16 15 15 14 13 13 13 13 13 14 14
21 22 22 21 20 20 21 23 23 24 24 22 20 19 19 18 16 15 14 14 15 15 14 14 14 14 15 16 16 16 16 16 16 16 15 13 13 13 13 14 14 15
24 24 25 24 22 21 22 23 24 26 26 23 20 21 20 18 16 15 15 15 15 14 13 13 14 14 15 15 15 16 16 16 16 16 15 14 13 13 14 15 15 15
27 27 28 26 25 24 23 24 25 26 26 22 21 21 20 18 17 16 16 16 15 14 13 13 14 14 14 14 15 15 16 15 15 16 15 15 15 14 14 15 15 16
29 30 30 28 26 25 24 25 26 26 26 23 21 21 20 18 16 16 17 16 15 15 14 14 14 15 15 14 14 15 15 14 15 15 16 16 16 15 14 15 15 16
30 31 29 28 27 25 25 26 26 26 25 24 23 22 20 17 16 17 17 16 15 15 14 14 15 15 15 14 14 14 14 13 14 15 16 17 17 16 15 15 15 16
31 30 28 28 28 27 26 27 26 26 26 25 24 23 20 18 19 20 18 16 16 15 14 14 14 14 14 14 14 13 12 12 14 16 16 17 18 18 16 15 16 17
32 30 28 29 30 28 28 28 27 27 26 25 25 25 22 21 22 21 18 16 15 14 14 12 11 10 11 12 11 11 12 13 16 17 16 16 18 19 18 18 19 19
31 30 29 30 32 30 29 30 29 28 27 26 26 26 25 25 24 21 18 15 14 14 12 10 8 9 10 10 9 10 12 14 15 15 15 17 19 19 19 19 18 17
29 30 29 29 32 31 29 30 30 29 29 28 27 27 26 25 23 20 18 16 15 13 11 9 8 8 9 9 9 10 12 13 13 13 14 16 18 20 19 17 16 15
27 27 28 29 32 32 30 29 29 29 31 30 29 28 27 25 23 20 19 18 16 13 11 9 9 8 8 9 9 10 12 13 12 12 13 14 17 20 20 18 17 18
23 24 27 30 32 32 30 29 29 30 32 32 30 30 29 26 23 22 21 20 17 13 11 10 9 8 8 9 10 11 12 13 12 13 13 15 17 19 20 21 20 20
21 24 27 29 31 31 29 30 32 32 33 33 32 31 31 28 25 24 23 21 17 14 12 11 11 11 10 10 10 10 11 11 11 12 13 14 17 18 19 21 21 21
20 24 26 27 29 30 29 31 33 32 32 33 33 32 31 29 27 26 24 21 19 16 14 13 14 14 12 11 10 10 10 10 11 13 13 14 16 18 19 20 21 21
18 22 24 25 27 29 30 31 33 33 32 33 32 32 31 30 28 26 24 22 20 18 17 16 16 15 14 13 12 12 12 12 12 14 15 15 17 19 20 20 21 22
15 19 21 23 25 28 29 32 34 34 34 34 34 32 30 29 27 26 25 23 21 21 20 18 18 17 17 17 16 15 15 14 14 16 17 18 19 20 21 22 22 23
15 17 20 24 26 27 28 30 33 34 33 33 35 35 32 27 26 27 26 25 24 23 22 21 20 20 20 19 19 18 18 17 17 17 18 19 20 21 22 23 23 23
14 16 19 23 25 26 28 31 33 33 33 33 35 37 36 31 27 27 27 27 26 25 24 23 22 22 22 21 21 21 21 20 19 19 20 20 21 22 23 24 24 23
10 12 16 19 22 25 27 31 33 32 33 35 35 36 38 35 31 29 28 27 27 27 26 25 24 24 24 23 23 22 22 21 19 20 22 23 23 24 24 24 24 23
9 11 14 17 20 22 23 27 31 30 30 32 34 35 37 37 34 32 30 29 29 28 28 27 27 27 27 26 26 25 25 24 23 23 25 26 27 28 26 25 25 26
14 16 17 18 21 22 22 22 27 30 29 30 32 34 36 39 39 36 33 32 31 31 30 29 29 28 27 27 28 28 28 28 28 27 27 28 29 29 27 26 26 27

ECMWFNIL_700_spd_078.txt.gz
Wind_Speed
22 24 25 26 24 21 18 17 17 18 18 16 15 14 14 15 16 16 16 16 15 14 14 14 14 15 15 14 13 14 14 14 14 14 13 14 14 14 14 14 14 14
24 25 25 24 21 18 16 15 16 17 18 18 16 16 16 17 18 17 17 16 15 15 15 15 15 15 15 14 15 15 15 15 14 14 13 14 14 14 14 15 15 14
26 25 24 23 20 17 16 17 16 17 18 20 18 17 17 18 18 18 17 17 16 16 16 15 14 15 14 14 15 15 15 15 14 14 14 14 14 14 15 15 15 15
26 25 24 24 22 20 21 19 16 15 17 19 19 18 18 19 18 18 18 17 17 17 17 15 14 14 15 15 15 15 15 15 15 15 15 15 15 15 15 15 15 15
23 23 25 27 27 24 21 17 13 14 16 17 18 18 19 19 19 19 18 18 18 18 17 15 15 15 16 15 15 15 15 15 16 16 16 16 16 15 15 14 14 14
25 24 25 27 25 18 13 9 10 13 14 15 16 18 19 20 20 20 20 19 19 18 17 16 16 17 17 17 16 16 16 16 16 16 16 16 16 16 15 13 13 13
26 26 23 22 20 17 12 9 11 13 12 14 16 17 19 20 20 21 21 20 19 19 18 18 18 18 18 17 17 17 17 17 17 17 17 17 17 16 15 14 13 13
23 23 20 18 19 20 18 13 11 11 12 14 15 17 18 19 21 22 21 21 20 20 20 19 18 18 18 18 18 18 18 18 17 17 17 17 16 16 15 14 14 14
18 19 18 20 22 23 22 17 12 11 13 14 15 17 19 20 21 23 23 22 21 21 20 19 19 19 18 18 18 18 18 18 18 17 17 17 16 16 16 16 15 16
15 15 17 21 21 19 19 18 16 15 16 18 18 19 20 21 22 24 24 23 22 20 19 19 20 19 18 18 18 18 18 18 18 18 17 17 17 17 17 16 16 17
16 16 18 20 18 15 16 18 18 17 18 20 22 22 23 23 23 25 25 24 22 20 19 19 19 18 17 17 17 18 18 18 18 17 17 17 17 17 17 16 17 18
20 20 20 19 17 17 18 19 19 18 18 21 23 24 25 24 24 25 25 24 22 21 20 19 18 17 16 16 17 17 17 18 18 17 17 17 17 17 16 16 17 18
24 24 23 20 19 19 20 20 21 20 20 21 23 25 26 24 24 25 25 24 24 23 21 19 17 16 16 16 16 17 17 17 17 17 17 16 17 17 16 16 17 17
25 26 26 25 23 23 22 21 21 20 20 22 24 27 28 26 26 27 27 26 25 24 22 20 17 16 16 16 16 16 16 17 16 16 16 16 16 16 16 16 16 17
22 24 25 26 26 26 24 23 23 22 21 23 26 28 29 29 29 29 30 28 26 24 23 21 18 17 16 15 15 15 15 16 16 16 15 16 16 16 15 15 16 17
19 20 22 24 25 25 25 24 23 22 23 24 27 27 28 30 31 32 32 30 27 26 24 22 20 18 16 15 15 15 15 15 15 15 16 16 15 14 14 15 17 18
19 18 19 20 22 23 24 24 23 22 24 25 27 28 29 30 31 32 33 31 28 27 25 22 20 18 17 16 15 15 15 15 15 15 15 15 14 13 14 15 17 18
20 20 19 18 19 21 23 23 22 23 24 25 27 29 29 30 30 32 34 32 29 28 26 22 21 19 17 16 15 15 15 15 15 15 14 13 12 12 13 14 15 17
20 21 22 20 17 19 21 22 21 23 25 24 25 27 27 29 31 33 35 33 30 28 26 24 22 20 18 17 16 16 15 15 14 14 14 13 13 13 13 13 15 17
18 20 22 21 18 16 19 20 20 22 24 24 24 26 27 29 33 35 35 34 30 28 26 25 23 20 19 19 18 16 15 13 13 13 14 14 14 14 13 14 15 17
19 20 21 21 17 13 15 18 19 20 23 23 24 27 27 28 33 36 37 34 30 28 27 26 24 21 21 21 19 17 15 13 12 13 14 15 14 13 13 14 15 16
18 19 20 19 15 11 12 16 17 18 21 22 24 27 27 29 34 37 38 35 30 28 28 27 24 23 23 22 19 17 15 14 13 12 13 14 14 13 13 14 16 17
17 17 17 16 14 11 9 13 15 17 20 22 25 30 30 30 34 38 40 37 32 29 28 27 25 24 24 23 20 17 16 15 14 14 13 13 13 13 13 14 16 18
17 17 16 14 14 14 10 11 13 15 19 21 24 29 30 31 34 37 40 39 34 31 29 27 25 24 24 23 20 19 18 17 16 16 15 14 14 14 14 14 15 17
18 17 17 15 15 17 13 11 11 13 16 18 22 27 29 32 33 36 39 38 34 32 30 26 25 25 23 23 21 20 19 19 18 18 17 16 15 15 15 16 16 17
19 18 16 15 16 17 15 12 9 11 13 15 20 25 25 28 31 33 36 35 32 31 29 25 24 24 23 23 21 20 20 20 20 19 18 17 17 17 17 18 18 19

ECMWFNIL_700_spd_081.txt.gz
Wind_Speed
23 19 18 21 23 23 23 24 25 24 23 19 16 15 18 20 20 18 17 17 17 17 18 17 17 17 18 18 18 18 18 18 18 17 16 14 14 14 13 14 16 15
27 22 20 21 25 29 28 28 29 27 23 18 14 14 17 18 18 17 16 17 17 18 18 18 18 18 18 19 19 19 19 19 18 17 16 15 14 14 13 15 16 15
30 27 24 22 24 29 29 28 29 26 21 15 12 13 16 16 16 16 17 18 18 19 19 18 18 18 19 20 20 20 20 20 19 18 17 16 15 15 15 16 16 16
31 30 27 24 23 25 27 28 28 23 16 14 13 15 17 17 16 16 17 18 19 19 19 19 19 19 19 19 20 20 21 20 19 18 18 17 16 16 17 17 16 17
30 30 28 25 23 24 26 26 26 22 16 15 17 18 19 18 17 16 18 19 19 19 19 19 19 19 19 19 20 20 21 21 20 19 18 17 17 17 17 17 17 18
27 28 26 22 21 22 21 20 22 21 17 16 17 18 17 17 17 17 19 20 20 20 19 19 20 20 20 20 20 20 21 21 20 20 19 18 18 17 17 17 17 18
22 24 23 20 20 19 16 15 17 17 14 15 16 16 14 15 17 17 19 21 21 21 20 20 21 21 20 20 20 20 20 20 20 19 19 19 19 18 17 16 16 17
17 19 19 19 20 19 15 14 15 14 13 15 16 15 14 15 16 17 20 23 22 22 21 21 22 22 21 21 20 20 20 20 20 20 19 19 19 18 17 16 16 17
11 13 16 17 18 19 16 14 14 15 16 17 17 16 15 15 17 19 23 25 25 24 23 22 23 23 22 21 20 20 20 20 20 20 20 19 19 18 18 18 17 17
3 6 9 11 13 14 14 14 15 16 18 19 18 17 17 17 18 21 24 27 26 25 24 23 23 22 21 20 20 20 20 20 21 21 20 20 19 19 19 19 18 17
6 3 4 6 9 11 12 14 16 17 19 20 21 20 18 18 19 20 22 24 26 27 25 23 22 21 21 20 19 20 20 20 20 20 20 20 20 19 19 18 18 18
10 8 7 10 13 14 16 18 19 18 18 20 22 23 21 19 19 19 19 21 25 26 24 22 22 21 20 19 19 19 20 20 20 20 20 19 19 19 19 18 18 18
10 11 12 15 18 19 20 21 21 21 20 21 23 24 24 22 20 20 20 20 23 25 22 21 22 22 20 19 19 20 20 19 19 19 19 18 18 18 18 18 19 19
13 12 12 14 16 18 20 21 22 23 22 22 23 25 25 23 22 21 21 20 22 25 25 23 23 23 21 20 20 20 19 18 18 18 17 17 17 18 18 18 19 19
15 14 13 13 14 15 16 18 21 24 25 24 24 25 24 24 23 23 23 23 24 27 28 26 25 24 23 22 21 20 18 17 16 16 16 17 17 17 17 17 18 18
18 16 15 15 15 16 16 16 19 23 26 27 27 26 25 24 24 24 24 26 27 29 30 29 27 25 24 22 21 19 17 16 15 15 15 16 17 17 17 17 18 18
20 19 19 18 18 18 18 18 19 21 23 27 28 28 26 26 26 25 27 29 31 31 31 30 28 27 25 23 21 19 18 17 16 16 16 16 17 18 18 18 18 18
20 21 22 22 21 20 19 19 19 21 23 25 28 28 28 28 28 28 28 31 32 33 32 31 29 28 27 24 22 21 20 19 18 17 17 17 19 19 18 18 18 19
19 21 23 25 24 23 21 20 19 19 22 24 25 27 29 29 29 29 28 29 32 32 32 31 30 29 28 25 24 23 22 21 19 17 18 19 20 19 18 17 18 18
19 20 22 25 27 26 24 22 19 17 19 22 23 25 28 29 29 29 30 30 31 30 30 31 31 29 28 26 25 24 23 21 19 18 19 20 19 17 17 17 17 18
18 19 21 23 25 27 26 24 21 16 15 19 20 21 25 27 28 29 30 31 33 31 30 32 33 30 28 28 26 24 22 21 19 19 19 19 18 17 18 18 18 18
18 18 20 21 23 24 24 24 22 18 15 15 17 18 21 25 27 28 29 30 32 33 31 32 33 32 30 29 27 25 23 21 20 20 19 19 18 18 19 18 18 18
20 20 20 20 21 22 22 22 21 18 16 15 15 16 18 22 24 26 28 31 33 33 32 32 33 33 31 30 27 25 24 22 21 21 20 20 19 18 18 18 17 17
21 22 22 21 21 21 21 20 18 16 16 15 16 17 18 20 24 26 28 31 33 33 33 33 33 33 32 30 27 25 24 23 23 21 20 20 19 18 17 16 16 16
21 22 22 21 20 19 20 19 16 12 13 13 13 15 15 17 21 26 28 29 32 32 31 31 32 32 32 30 27 25 25 24 23 21 20 20 19 18 17 15 15 15
20 20 20 19 19 17 17 17 15 10 9 8 8 11 13 11 14 23 27 26 28 31 30 29 30 31 32 30 27 25 25 24 22 21 21 20 19 19 19 17 15 16

ECMWFNIL_700_spd_084.txt.gz
Wind_Speed
25 27 28 29 29 26 22 20 21 20 18 18 16 14 15 18 19 20 21 22 22 24 24 22 21 21 21 21 22 22 23 24 22 20 19 19 18 18 17 17 17 18
25 26 27 29 30 28 24 21 22 24 23 21 20 18 19 20 21 22 23 25 25 24 24 24 22 21 21 22 24 25 25 23 20 19 19 19 19 18 17 17 17 19
23 24 26 28 29 28 26 22 21 24 25 25 24 22 22 22 20 21 24 26 25 22 22 23 23 23 23 24 26 26 25 22 20 19 19 20 19 18 18 17 18 20
23 25 26 27 28 28 25 22 20 22 24 25 24 23 21 20 19 18 21 23 23 21 21 23 24 24 25 27 27 25 22 21 21 21 20 21 20 19 19 19 20 21
25 27 27 24 25 27 25 21 20 21 22 23 23 21 19 17 17 18 18 19 20 21 22 24 26 26 27 28 26 23 22 22 22 22 22 22 22 21 21 21 22 21
25 27 25 20 20 23 22 20 18 18 18 19 19 19 18 17 16 17 19 19 19 21 23 26 27 28 28 25 23 23 23 22 22 22 23 23 23 22 22 23 23 21
23 25 20 15 16 19 18 16 15 14 13 13 14 16 17 17 16 16 19 21 22 25 27 28 29 29 26 22 23 24 22 21 22 23 24 24 24 23 23 24 23 21
20 22 16 12 12 15 16 14 14 12 11 11 12 14 16 17 16 16 18 21 25 27 27 26 28 28 26 26 26 25 23 22 23 24 25 25 24 24 24 24 24 21
16 18 13 10 11 12 13 14 13 12 11 12 13 14 15 15 16 16 17 20 23 23 23 25 28 28 28 27 27 25 23 23 24 24 24 25 25 24 24 25 23 20
13 12 11 8 8 9 10 11 12 12 13 14 15 15 15 15 16 17 18 19 20 20 22 25 27 28 27 26 25 25 24 24 24 24 24 26 25 25 25 25 22 20
13 10 9 9 8 6 7 9 11 13 15 16 17 18 18 19 19 18 19 19 18 19 20 23 25 27 28 27 25 25 24 24 24 25 26 26 26 26 26 24 21 20
14 11 9 9 10 10 9 10 12 13 16 18 20 20 21 23 22 20 19 19 19 19 20 21 22 25 27 28 26 25 24 24 24 26 27 26 26 27 26 23 22 21
14 12 9 8 9 11 13 15 17 19 20 22 22 22 22 24 24 22 22 22 21 21 21 21 22 24 26 28 28 26 24 24 25 26 26 25 25 25 24 23 23 22
13 13 11 9 8 9 11 14 18 21 24 25 26 25 25 26 26 26 25 25 24 23 23 23 24 26 27 28 28 27 25 24 25 26 25 24 23 22 22 22 22 22
13 13 12 12 11 11 11 12 14 16 19 23 26 28 28 28 29 29 29 27 25 25 24 24 25 28 29 28 28 28 26 24 24 25 25 24 23 21 22 22 22 22
14 13 13 13 14 14 14 14 15 16 17 19 22 27 30 30 31 32 32 29 26 25 26 26 27 28 29 28 27 27 26 25 24 24 24 24 23 22 22 22 22 23
15 15 15 15 15 15 16 16 17 18 18 18 19 23 28 32 33 34 33 31 28 27 26 27 28 29 29 29 28 28 27 26 25 24 23 23 22 22 22 21 21 22
16 16 17 17 17 17 17 18 18 18 19 19 19 20 24 31 35 35 34 34 33 31 28 28 30 30 30 30 30 29 28 27 26 25 24 22 22 21 20 19 20 21
17 17 17 18 19 20 20 20 20 19 19 20 20 19 21 27 33 36 35 36 36 33 31 31 31 30 32 32 30 30 30 28 27 26 24 23 22 21 21 20 20 21
17 17 18 18 18 20 21 22 22 21 20 20 20 19 19 22 29 33 34 35 35 33 32 32 31 31 33 34 32 31 31 31 29 26 24 24 23 22 21 21 20 21
18 18 19 19 19 20 21 23 24 23 23 22 21 19 19 20 24 28 30 32 34 32 30 30 30 30 31 33 34 33 32 32 31 28 25 25 24 23 22 21 20 20
19 19 20 20 20 20 21 21 23 24 24 23 22 20 17 17 21 24 26 28 30 32 31 29 30 31 31 31 33 34 33 33 32 29 28 27 25 24 23 21 20 20
20 21 21 21 21 21 20 20 21 23 23 23 22 20 17 17 19 21 23 25 27 30 30 29 30 32 31 31 33 34 33 32 32 31 30 29 28 26 25 23 22 22
19 19 20 20 21 21 20 20 21 21 22 21 20 19 17 17 19 20 21 22 22 25 27 28 31 33 32 33 34 34 31 31 32 32 29 27 26 26 24 23 22 22
17 17 18 18 19 20 20 19 20 19 19 17 15 14 14 15 17 19 19 20 22 24 23 24 29 31 30 31 33 32 31 31 32 30 27 25 25 24 23 23 23 22
17 17 17 17 17 18 18 18 17 16 15 12 10 9 9 10 12 14 16 18 20 21 20 21 25 27 27 29 31 29 28 31 31 27 26 26 25 24 23 22 22 22

ECMWFNIL_700_spd_087.txt.gz
Wind_Speed
22 23 23 24 25 25 26 28 30 29 26 23 21 19 17 13 11 12 14 17 19 21 23 23 23 23 22 22 23 24 24 24 24 25 23 21 21 22 21 20 18 17
19 21 22 24 27 27 28 29 29 28 27 26 22 18 18 16 15 15 17 19 20 21 23 24 23 22 22 23 24 25 25 25 23 22 20 20 22 22 20 19 18 17
20 22 23 24 26 27 28 29 27 27 28 26 22 18 18 19 19 19 19 21 22 21 22 22 22 22 23 23 24 25 27 26 23 21 20 21 22 21 19 19 19 18
21 22 22 23 25 26 25 25 26 26 27 25 22 20 18 17 19 20 20 20 20 20 20 20 20 22 23 24 25 26 26 25 23 22 22 23 23 21 20 20 20 20
19 20 20 21 24 25 21 21 24 23 21 22 23 22 19 16 17 19 19 19 18 18 19 19 20 22 23 24 26 27 25 24 23 23 24 24 24 23 21 20 20 21
17 18 18 19 23 23 18 18 21 19 17 21 24 23 20 18 17 18 18 18 19 20 19 18 18 21 23 24 25 26 25 23 23 24 24 24 25 24 22 20 21 21
16 17 17 19 22 22 18 16 16 17 17 18 19 19 19 18 17 18 19 18 19 21 20 19 18 19 20 22 23 25 25 24 24 24 24 25 27 25 22 21 21 21
15 16 17 18 20 22 18 15 14 13 12 13 14 16 17 17 17 19 20 19 20 21 20 19 18 18 18 20 21 22 24 25 26 26 26 27 28 25 23 23 23 22
14 16 17 16 17 19 18 14 13 10 9 10 12 15 17 18 19 19 19 20 21 21 19 18 18 18 18 20 20 20 22 25 27 28 27 27 27 25 25 23 21 22
14 15 16 15 15 16 15 13 10 8 9 11 12 15 18 20 21 20 18 18 20 21 20 18 19 19 19 19 19 19 21 24 26 27 27 27 27 27 26 22 21 23
14 14 15 14 14 14 13 12 11 9 9 11 14 16 18 21 23 22 20 20 20 21 22 21 21 21 20 19 18 19 21 23 25 27 27 28 28 27 26 23 22 23
13 14 14 13 13 13 13 13 12 11 11 12 13 15 16 18 22 23 23 24 23 22 23 24 24 22 19 18 18 19 21 23 25 27 28 29 29 29 28 24 22 22
13 13 13 13 12 13 13 13 13 12 12 13 15 18 19 21 24 27 27 26 26 24 24 26 26 23 20 19 18 20 22 24 26 27 27 28 28 28 26 23 22 22
14 14 14 13 13 13 13 13 13 13 13 15 17 19 23 25 28 31 31 29 29 27 25 25 27 27 25 22 20 21 22 24 27 27 27 28 28 26 24 23 22 22
15 15 15 15 14 14 14 15 15 15 15 16 17 18 20 22 26 29 31 31 31 30 28 28 28 28 28 25 21 21 22 24 27 28 27 28 28 26 26 26 25 24
16 16 16 16 16 16 16 16 16 17 17 17 18 18 18 19 22 25 28 30 31 31 31 31 31 28 27 27 24 21 22 24 28 29 29 28 28 27 27 27 26 25
17 18 18 18 18 17 17 17 17 18 19 20 20 20 20 19 20 22 25 28 31 32 32 33 33 30 28 28 26 25 25 27 28 29 29 28 28 28 28 26 26 26
18 19 19 18 18 18 18 19 19 19 20 21 22 22 22 22 22 22 24 26 29 32 33 33 34 32 28 27 26 27 28 28 28 29 30 29 29 30 28 26 25 25
18 19 19 19 19 19 19 20 20 21 22 23 23 23 23 24 24 24 24 25 26 29 30 32 33 32 28 27 26 27 29 29 28 29 31 30 28 27 26 24 23 23
19 19 20 20 20 20 20 20 21 22 23 24 24 24 24 24 25 25 25 24 24 25 27 29 32 30 28 29 29 28 30 30 29 30 32 30 27 26 25 23 23 24
19 20 21 22 22 22 22 22 23 24 25 25 25 26 26 26 25 25 24 23 22 22 23 25 28 28 28 29 30 31 32 31 30 31 33 32 29 26 25 25 25 25
19 20 21 22 23 23 24 24 24 24 25 26 27 27 28 27 26 24 23 22 22 21 21 22 24 25 26 28 30 32 33 32 32 33 35 36 32 28 27 27 26 26
19 19 20 20 21 22 23 24 24 24 24 25 26 27 27 27 26 24 22 21 20 20 21 21 22 24 25 26 28 30 31 32 33 34 36 37 34 31 30 29 27 27
19 19 19 19 20 21 22 23 24 24 24 24 24 25 25 25 24 23 21 19 19 19 19 19 20 21 21 22 24 26 29 30 30 32 35 36 34 33 32 30 29 29
17 18 18 19 19 20 21 22 23 23 23 23 22 22 22 21 20 19 18 17 17 17 18 18 19 19 19 21 22 24 26 28 30 33 35 34 34 34 32 30 30 30
15 15 16 17 17 18 19 19 20 21 21 21 20 20 20 19 18 17 16 15 14 15 15 16 16 17 18 19 21 23 24 27 29 29 31 33 34 32 30 29 30 29

ECMWFNIL_700_spd_093.txt.gz
Wind_Speed
12 13 14 14 15 15 15 15 15 18 21 23 23 22 20 19 18 18 18 18 19 21 19 17 17 17 16 18 20 19 19 20 22 23 24 23 23 23 24 23 23 26
11 12 13 13 14 14 15 15 16 19 21 22 21 18 17 18 16 16 17 18 19 21 20 18 18 20 21 22 23 22 20 21 22 23 24 23 22 22 22 22 23 26
11 12 13 13 13 14 15 15 17 19 21 21 19 17 15 15 15 15 15 16 18 18 18 18 20 22 24 24 24 24 22 21 22 24 24 21 20 20 21 21 23 25
12 12 12 12 12 13 14 15 17 19 20 20 19 17 15 14 14 14 14 15 16 16 16 18 20 22 24 25 24 24 22 20 20 23 24 21 19 21 22 21 22 24
12 12 12 12 13 13 14 15 16 17 18 19 19 17 16 15 14 14 14 14 15 15 16 17 19 21 23 23 24 25 23 19 19 21 22 20 19 21 22 21 22 25
12 12 12 13 13 14 14 14 15 16 17 18 18 18 17 16 15 15 15 14 14 14 14 15 17 19 20 20 21 23 23 21 19 20 21 21 20 21 23 23 23 25
12 12 12 13 13 14 14 15 15 15 16 16 17 18 18 17 16 16 16 15 16 16 15 15 17 18 19 19 19 20 22 21 19 18 19 20 21 21 22 24 24 22
13 12 12 13 13 13 14 14 15 15 15 15 16 17 18 18 18 18 17 17 17 17 16 16 17 18 18 18 18 20 21 20 19 18 18 18 19 21 22 23 24 23
13 13 13 13 13 14 14 15 15 15 15 15 15 16 17 18 18 18 18 18 19 19 18 17 18 18 17 17 19 20 21 20 19 19 18 17 17 19 21 23 24 23
14 14 14 14 14 15 15 16 16 16 15 15 15 16 16 17 18 18 18 19 20 20 20 20 19 18 18 18 19 20 20 19 18 18 19 18 17 18 21 24 24 22
16 16 16 15 16 16 16 17 17 17 17 17 17 17 16 16 17 18 18 18 19 20 20 21 20 18 17 18 19 20 20 18 17 17 19 18 16 17 19 22 22 21
17 17 17 16 16 17 17 17 18 19 19 19 19 19 18 17 18 18 18 19 19 19 20 20 21 20 18 18 18 18 18 18 17 17 18 18 16 17 18 19 21 22
18 18 17 17 17 17 18 18 19 20 20 21 21 21 20 19 19 19 20 21 20 20 20 20 21 21 20 19 18 17 16 16 17 17 17 18 17 18 18 18 19 21
19 19 18 18 18 18 19 19 20 20 21 21 22 22 22 21 20 20 21 22 23 22 21 21 21 21 21 20 18 18 17 16 17 17 18 18 17 18 18 16 16 19
19 20 20 20 20 20 20 20 21 21 22 22 22 22 23 23 22 22 22 23 24 25 24 23 23 23 22 21 20 19 19 18 18 18 19 19 18 18 19 18 17 18
20 20 21 21 21 21 22 22 22 22 22 23 23 23 23 23 24 24 23 23 24 25 26 25 24 24 23 22 21 21 20 19 19 19 20 20 18 18 19 20 19 19
20 21 21 22 22 23 23 23 23 23 23 23 24 24 24 24 25 27 27 26 24 24 26 26 26 25 24 23 21 21 21 19 19 19 19 19 20 19 19 20 20 20
21 21 22 22 22 23 23 23 23 23 23 24 24 24 25 25 26 27 29 30 29 27 26 26 26 26 25 24 22 20 20 20 19 19 19 20 21 22 22 22 22 21
21 21 22 22 23 23 23 24 24 24 24 25 25 26 26 27 27 28 29 31 33 32 29 27 26 26 25 24 22 21 20 19 19 19 19 21 22 23 23 23 21 20
21 21 22 23 23 24 24 25 25 25 26 27 27 28 28 29 29 29 30 31 33 34 33 29 27 26 25 23 21 21 20 20 20 18 18 20 21 22 23 22 20 20
21 21 22 22 23 23 24 25 25 26 27 28 28 29 29 29 29 29 29 29 30 31 32 31 28 26 24 23 20 19 20 20 20 19 17 17 19 21 22 22 21 20
20 21 20 20 21 22 23 24 25 25 26 27 28 28 28 27 28 27 27 27 27 27 28 29 29 25 24 23 21 18 18 19 21 21 17 15 18 21 23 24 23 22
19 20 19 19 21 22 23 24 24 24 25 26 26 26 26 26 26 25 25 25 26 26 26 27 27 25 23 22 21 19 18 18 19 21 19 16 17 19 21 22 23 23
18 18 19 20 21 22 23 24 24 25 25 25 26 26 26 26 26 25 25 25 25 25 25 25 25 25 23 22 21 20 18 18 18 18 18 17 15 16 17 18 20 21
17 18 19 20 21 22 23 24 25 25 26 26 26 26 26 26 27 26 25 25 24 24 23 23 23 24 23 22 20 19 18 18 17 16 16 16 14 13 13 13 15 18
16 18 19 20 21 22 23 24 25 25 26 26 26 26 26 26 26 27 27 26 24 23 22 21 21 21 22 21 19 18 17 16 14 13 14 15 14 12 11 11 14 16

ECMWFNIL_700_spd_096.txt.gz
Wind_Speed
10 10 10 11 11 12 12 13 14 15 17 18 20 20 18 16 15 13 13 14 15 16 18 18 18 19 20 19 18 18 18 20 21 23 24 25 26 26 27 28 28 28
11 10 11 11 12 12 12 13 15 16 17 18 18 18 17 15 14 13 13 13 14 14 15 16 17 17 18 19 20 20 21 22 22 23 25 26 27 28 27 27 28 29
11 11 11 11 11 12 13 14 15 16 17 17 16 16 16 15 14 13 13 13 13 13 13 14 15 16 17 18 20 21 22 22 23 24 25 26 27 28 28 28 28 28
12 13 12 11 11 12 13 14 15 16 16 16 16 16 15 15 14 14 14 13 13 13 13 13 13 14 16 18 20 21 22 23 22 23 25 26 27 27 27 27 28 27
13 13 12 12 12 12 13 13 14 15 16 16 16 16 15 15 15 14 14 14 13 13 13 13 13 14 16 18 19 21 21 21 21 22 23 24 25 26 26 27 27 26
13 14 13 13 12 12 13 13 14 14 15 16 16 16 16 16 16 15 15 15 14 14 14 14 14 15 16 18 19 20 21 20 20 20 21 22 22 23 24 25 25 25
14 14 14 14 13 13 13 13 14 15 15 16 16 16 16 16 16 16 15 15 15 15 15 15 16 16 17 18 19 20 20 20 20 19 20 20 20 20 21 23 24 25
15 15 15 15 15 15 15 15 16 16 17 17 17 17 17 17 17 17 16 16 16 16 16 16 16 16 16 17 19 20 20 20 20 20 20 20 19 18 19 21 24 25
15 16 16 16 16 17 17 17 17 18 18 19 19 19 18 18 18 18 18 18 18 17 17 17 17 17 17 17 18 19 20 20 20 20 20 20 19 18 18 20 23 24
16 17 17 17 17 18 18 19 19 20 20 20 20 20 20 19 19 19 19 20 20 19 19 19 19 18 18 19 19 19 19 20 21 21 20 19 18 18 19 20 22 23
17 17 18 19 19 19 20 20 20 21 21 21 21 21 21 21 21 20 20 20 21 21 21 21 20 20 20 20 20 20 20 19 19 20 21 20 19 18 19 20 22 23
18 18 19 20 21 21 22 22 22 22 22 22 22 22 22 23 23 23 22 22 21 22 22 22 22 21 21 21 21 21 21 20 20 19 20 20 20 19 18 19 21 22
20 20 21 22 23 23 23 23 23 23 23 23 23 23 23 24 24 25 25 24 23 23 23 23 23 23 23 23 23 23 22 22 22 22 21 21 21 20 19 19 20 21
21 22 23 23 24 24 23 23 23 23 23 24 24 24 24 24 25 25 25 25 25 25 25 25 25 25 25 25 25 25 24 23 22 23 23 22 22 21 20 19 19 20
21 22 23 23 24 24 24 25 25 25 25 25 26 26 26 26 26 26 26 26 27 27 28 28 28 28 27 27 27 26 26 25 23 23 23 23 23 22 21 20 19 20
21 22 22 23 24 25 25 26 26 26 26 26 26 26 26 26 27 27 27 28 28 29 30 30 31 31 30 30 29 28 27 26 25 24 23 23 23 22 21 20 20 20
21 22 23 24 24 25 25 25 26 26 26 26 26 26 26 26 27 27 28 29 30 31 32 33 33 33 33 31 31 30 29 28 26 25 23 22 23 23 22 20 20 20
21 22 23 24 24 24 25 25 26 26 27 27 27 28 28 28 29 29 30 31 31 32 33 34 34 34 33 31 29 29 29 29 28 26 24 22 22 23 23 22 20 21
22 22 23 24 24 25 25 26 27 27 28 28 29 30 30 30 30 31 31 31 31 31 31 31 31 31 31 29 27 26 26 27 27 26 25 23 21 21 22 24 23 23
22 22 23 24 24 25 26 26 27 27 28 29 30 30 30 30 30 30 30 30 30 29 29 29 29 29 29 28 27 25 23 23 25 26 25 23 20 19 21 24 26 25
21 22 23 24 24 25 25 26 27 27 28 29 29 30 30 30 30 29 29 29 29 29 29 28 28 28 28 28 27 25 23 22 22 23 24 23 21 19 20 22 25 27
21 22 23 24 24 25 25 26 27 27 28 29 29 30 30 30 30 30 29 29 28 28 28 28 28 28 28 27 27 26 24 22 21 22 23 23 21 20 19 21 24 27
20 21 22 23 24 25 25 26 26 27 27 28 28 29 29 30 30 30 30 30 29 28 28 27 27 27 27 26 26 26 25 23 22 21 22 22 22 20 19 20 23 26
19 20 21 21 22 23 23 24 24 24 25 26 27 28 28 29 29 30 30 31 30 30 29 28 26 26 25 25 25 25 25 25 23 21 21 21 19 18 18 19 21 23
17 18 18 19 19 20 21 22 23 23 24 25 26 27 28 28 29 29 30 30 30 30 29 28 27 25 24 23 23 23 24 24 23 22 19 15 13 16 17 16 17 19
15 16 17 17 18 19 20 22 23 23 24 25 26 26 27 28 29 29 29 30 29 29 28 27 27 25 24 22 21 21 22 22 22 20 16 12 13 16 15 12 13 16

ECMWFNIL_700_spd_102.txt.gz
Wind_Speed
10 10 11 11 12 13 13 15 16 16 16 16 16 15 16 17 17 18 18 19 19 20 20 20 20 20 21 21 21 22 22 21 21 20 20 20 21 22 24 24 25 26
10 10 11 11 12 13 14 15 16 17 17 17 17 16 16 17 18 18 19 19 20 20 21 21 21 21 21 21 21 22 22 22 22 22 22 22 22 23 24 24 24 24
10 10 11 12 13 14 15 16 17 17 17 18 18 17 17 18 19 19 20 20 20 21 22 22 22 22 22 22 22 23 23 23 24 23 23 23 23 24 24 24 24 24
10 10 11 12 13 15 16 17 17 18 18 18 19 19 19 19 20 21 22 22 22 22 23 23 23 24 24 24 24 24 24 24 25 25 24 24 25 25 25 26 26 25
10 11 12 13 14 15 17 17 18 18 19 19 20 21 21 21 22 23 23 24 24 24 25 25 25 25 25 26 26 26 26 26 26 26 26 25 25 26 26 27 27 27
11 12 13 14 15 16 17 18 18 18 19 20 21 22 23 23 23 24 25 25 26 26 26 26 27 26 27 27 27 28 28 28 27 27 27 27 26 27 28 28 28 28
12 12 13 15 16 17 17 17 18 19 20 21 22 23 24 24 25 25 26 27 27 28 28 28 28 28 28 29 29 29 29 30 29 28 28 28 28 28 29 29 30 30
13 13 14 15 16 16 17 17 18 19 21 22 23 24 25 26 26 27 28 28 29 29 29 29 30 30 30 30 30 31 31 31 31 30 29 29 30 30 31 31 31 31
13 13 14 14 15 16 17 18 19 20 22 23 24 25 26 27 28 28 29 29 30 30 30 31 31 32 32 32 32 32 33 33 33 33 32 31 31 32 33 33 33 33
12 13 13 14 15 16 18 19 20 22 23 24 25 26 27 27 28 29 29 30 31 31 32 33 33 34 34 34 34 34 34 34 34 34 35 35 34 34 35 35 35 34
12 12 13 14 15 16 18 19 20 22 23 24 25 26 27 28 29 29 30 31 32 32 33 34 35 35 35 34 35 35 35 35 35 35 36 37 38 38 37 37 36 35
12 12 13 14 15 16 17 19 20 22 23 25 26 27 28 29 30 30 31 31 32 32 33 34 34 34 34 35 35 35 36 37 37 38 38 38 39 39 39 38 36 35
12 13 13 14 15 16 18 19 21 23 24 26 27 28 29 29 30 30 31 31 32 32 33 33 34 35 35 35 36 36 37 37 38 38 38 38 38 38 38 37 36 35
13 14 14 14 16 17 19 21 22 24 25 26 28 28 29 30 30 31 31 32 33 33 34 35 36 36 36 36 36 36 37 37 37 37 37 37 37 36 36 35 35 34
14 15 15 16 17 18 20 22 23 25 26 27 28 29 30 30 31 31 32 33 33 34 35 36 36 37 38 38 38 38 38 38 37 37 37 37 37 36 35 34 33 33
15 16 16 17 18 19 21 23 24 26 27 28 29 29 30 30 31 31 32 32 33 33 34 35 35 36 37 38 39 39 39 39 39 39 38 38 37 37 36 34 33 32
16 17 17 18 19 20 22 23 25 26 27 28 28 28 28 29 29 30 30 30 31 31 32 33 33 34 35 35 37 37 38 38 39 39 39 38 38 37 37 36 34 32
17 17 17 18 19 20 22 23 24 25 26 26 26 26 26 26 26 26 26 27 27 27 28 28 29 30 31 31 33 34 34 36 37 37 38 38 37 37 37 36 35 33
16 17 17 18 19 20 21 22 23 23 24 24 24 23 22 22 22 22 22 22 22 23 23 24 25 25 27 28 29 30 31 32 33 35 36 37 37 36 36 36 35 34
16 16 16 17 19 19 20 20 20 21 20 20 19 18 18 18 18 18 19 19 20 21 22 23 24 24 25 26 27 28 29 30 31 32 34 35 36 36 36 35 35 34
14 15 16 16 17 17 17 17 17 16 15 15 14 14 15 16 17 18 18 19 20 22 23 23 24 25 26 27 27 28 29 30 30 31 32 33 34 35 36 35 35 34
13 13 14 14 14 14 14 13 13 12 12 12 13 14 15 16 17 18 19 21 22 23 24 24 25 26 27 28 28 28 29 30 30 30 31 32 33 34 35 35 35 34
11 11 11 11 11 11 10 10 10 10 11 12 13 15 16 17 19 21 22 24 25 25 26 27 28 28 29 29 29 29 29 29 30 30 31 32 33 34 34 35 35 35
8 8 8 8 8 7 7 8 9 10 11 13 15 17 19 20 22 24 25 26 27 28 29 30 31 31 31 31 31 31 31 31 32 32 31 31 31 32 33 34 34 33
5 5 5 5 5 5 6 8 10 12 14 16 18 19 21 23 25 25 26 27 28 30 31 32 33 33 33 34 34 34 34 34 34 34 33 32 30 30 31 32 32 32
3 4 4 4 4 5 8 10 12 14 16 18 19 21 22 24 25 25 27 28 29 31 31 32 33 34 35 36 36 36 36 36 36 35 34 34 33 32 32 32 31 31

ECMWFNIL_700_spd_105.txt.gz
Wind_Speed
10 10 11 11 11 11 11 12 12 13 14 14 15 15 16 16 16 16 17 17 18 19 19 20 20 20 21 21 21 21 21 22 22 22 23 23 23 23 22 22 22 23
10 11 11 11 11 11 12 12 13 14 14 15 16 16 17 17 18 18 19 20 20 21 22 22 22 23 23 23 23 23 22 23 23 23 24 24 24 24 24 24 24 24
11 12 12 12 12 12 13 13 14 14 15 16 16 17 18 18 19 20 21 21 22 23 23 24 25 25 25 25 25 25 25 25 24 24 25 26 26 26 25 25 25 25
12 12 12 12 12 13 14 14 15 15 16 16 17 17 18 19 20 21 22 23 23 24 24 25 25 26 26 26 26 27 27 27 27 27 27 27 27 27 27 27 26 26
14 13 12 12 13 13 14 14 15 16 16 16 17 18 19 20 21 22 23 23 24 25 25 26 26 26 26 27 27 27 27 28 28 28 29 29 29 29 29 28 28 27
14 13 13 13 13 13 14 15 15 15 16 16 17 18 19 21 22 23 24 24 25 25 26 27 27 27 27 27 28 29 29 30 30 30 30 30 31 31 30 30 29 29
14 13 13 13 13 14 14 14 14 14 15 16 17 18 20 21 22 23 24 25 26 27 28 28 29 29 30 30 31 31 32 32 32 32 31 31 31 31 31 31 31 31
15 14 13 13 13 14 14 14 14 14 15 16 17 19 20 21 23 24 26 27 28 29 29 30 31 31 32 33 33 33 33 33 33 33 33 32 32 32 32 32 33 33
15 14 13 13 14 14 14 13 13 14 15 16 17 19 20 22 24 25 27 28 29 30 31 31 32 32 33 33 34 34 34 35 35 35 35 35 35 35 34 34 34 34
15 14 14 14 14 14 13 13 13 14 15 16 17 19 21 23 25 27 28 30 31 31 32 32 32 33 34 34 35 35 35 36 36 37 37 37 37 37 37 36 36 35
15 14 14 14 14 14 13 13 13 14 15 17 19 21 23 25 27 29 30 31 32 32 32 33 33 33 34 35 35 36 36 36 36 36 37 37 38 38 38 38 37 37
15 15 15 15 14 14 14 14 14 15 17 19 21 23 25 27 29 30 31 31 32 32 32 33 33 33 34 34 35 36 36 36 36 36 36 36 37 37 37 37 37 38
16 16 16 15 15 14 15 15 16 17 19 21 23 25 26 28 29 30 30 31 31 31 32 32 32 33 33 33 34 35 35 36 36 36 35 35 35 36 36 36 36 37
17 17 16 15 15 15 16 16 18 19 21 22 24 26 27 28 29 29 29 29 30 30 30 31 31 31 31 31 31 32 32 33 33 33 33 33 33 33 34 35 35 35
17 16 16 15 15 16 17 18 19 21 22 24 25 26 27 27 28 28 28 28 28 28 28 28 28 29 29 28 28 29 29 30 31 31 32 32 32 32 32 33 33 33
16 16 15 15 15 16 18 19 21 22 23 24 25 25 25 26 25 25 24 24 24 24 24 25 25 26 26 27 27 27 27 28 29 30 31 31 32 31 31 31 31 32
15 14 14 14 15 17 19 20 21 22 22 23 23 23 22 22 21 21 21 21 21 21 22 22 23 23 24 25 26 27 27 28 29 30 31 32 32 33 33 32 32 32
13 13 12 13 15 17 18 19 20 21 21 20 19 19 18 18 18 18 18 18 18 18 19 20 21 22 24 25 26 28 29 30 31 31 32 33 34 35 35 35 34 34
12 11 12 13 15 16 17 18 18 18 17 16 16 15 15 15 15 15 15 15 16 17 18 20 21 23 24 26 27 28 29 30 31 32 33 34 35 35 36 36 36 36
10 10 11 12 13 14 15 15 15 14 13 13 13 13 12 12 12 13 14 15 16 18 20 21 22 24 25 26 27 28 29 30 31 31 32 33 34 35 36 36 36 36
9 9 9 10 11 12 12 11 10 10 10 10 9 9 10 11 12 13 15 16 18 20 21 22 24 25 26 27 28 29 30 30 31 31 32 33 34 35 35 36 35 35
7 7 8 8 9 9 8 7 7 7 7 7 7 9 10 12 13 15 17 18 20 21 22 23 25 26 27 28 29 30 31 31 32 32 33 34 35 35 36 36 36 35
5 5 5 5 5 5 5 5 5 6 6 7 8 10 11 13 15 16 18 20 21 22 23 25 26 27 28 29 30 31 32 32 33 34 34 35 36 37 38 38 38 37
3 3 2 2 3 3 4 5 6 6 7 8 9 11 12 14 16 18 19 21 22 23 25 26 27 28 29 30 31 32 33 33 34 35 35 36 37 38 38 37 36 36
0 1 2 3 4 4 5 6 6 7 7 8 10 11 13 15 17 19 20 21 23 24 25 26 27 28 29 30 32 33 34 35 36 36 37 37 38 38 38 36 33 31
3 3 4 5 6 6 7 7 6 7 8 9 11 13 14 16 18 19 20 22 23 24 25 26 27 29 30 31 33 34 35 36 37 37 38 39 40 39 38 35 32 30

ECMWFNIL_700_spd_108.txt.gz
Wind_Speed
11 11 12 12 12 12 11 11 11 12 12 13 13 14 14 14 15 15 15 16 17 18 19 20 20 21 22 22 22 23 23 23 23 24 24 24 24 24 24 24 25 25
13 13 13 13 13 12 12 12 13 13 14 14 14 15 15 15 15 16 16 17 18 19 20 21 21 22 22 23 23 24 24 24 24 24 25 25 25 25 25 26 26 27
14 14 14 13 13 13 13 13 13 14 14 14 15 15 15 15 15 16 17 18 19 20 20 21 22 22 23 24 24 24 24 25 25 25 25 26 26 27 27 28 28 28
15 15 14 14 14 14 14 14 14 14 14 15 15 15 15 15 15 16 17 18 19 20 21 21 22 23 24 25 25 26 26 26 26 27 27 27 28 28 28 29 29 29
16 15 15 15 14 15 15 15 15 14 14 15 15 15 15 15 16 17 17 18 20 21 22 23 24 25 26 26 27 27 28 28 28 28 28 28 28 28 28 28 29 29
17 16 15 15 15 16 16 15 15 14 14 14 14 14 15 15 16 17 18 20 21 23 24 25 26 27 28 28 29 29 29 29 30 30 30 30 30 30 29 29 29 30
17 16 16 16 16 17 17 16 15 14 14 14 14 14 14 15 17 18 20 22 23 25 26 28 29 30 30 30 31 31 31 31 31 31 31 32 32 32 32 32 32 32
17 16 16 16 17 17 17 16 15 14 14 14 14 14 15 17 18 20 22 24 25 27 28 30 31 31 31 31 32 32 32 32 32 33 33 33 33 33 33 33 33 33
18 17 17 17 17 18 17 16 15 14 14 14 15 16 17 19 21 22 24 26 27 29 30 31 31 31 32 32 32 33 33 33 33 33 34 33 34 34 34 34 34 35
18 18 17 17 17 18 17 16 15 15 15 15 16 17 19 21 23 24 26 27 29 30 30 31 31 31 32 32 32 32 31 31 31 31 31 31 31 32 32 32 33 33
19 18 18 17 18 18 17 16 16 16 16 17 18 19 21 23 25 26 28 29 30 30 30 30 30 29 29 28 28 28 28 28 27 28 28 28 29 29 29 30 30 31
19 18 18 18 18 17 17 17 17 17 17 18 19 21 23 25 26 28 29 29 29 28 28 27 26 25 25 24 24 24 25 25 25 26 26 27 27 28 28 29 29 30
18 18 18 18 18 17 17 17 17 17 18 19 20 22 24 25 27 28 28 28 27 25 23 22 21 21 22 22 22 23 23 23 24 25 25 26 27 27 28 28 29 29
18 17 17 18 18 17 17 17 17 18 18 19 21 22 24 25 26 26 25 24 22 20 20 19 19 19 20 20 21 22 23 24 24 25 26 26 27 28 29 29 30 30
17 17 17 17 17 17 17 17 17 18 18 19 20 21 22 23 23 22 20 18 17 17 18 18 18 19 19 20 22 23 24 25 26 27 27 28 28 29 30 31 31 31
17 17 17 16 16 16 16 17 17 17 17 17 18 19 20 20 18 17 15 15 15 16 17 18 19 20 21 22 23 24 25 26 27 27 28 28 28 28 29 30 31 32
16 15 15 15 14 14 15 16 16 16 15 15 16 17 16 14 12 12 12 13 14 15 16 18 19 20 22 22 23 24 25 26 27 28 28 29 29 29 30 30 31 32
14 14 13 13 13 13 14 14 14 13 13 13 13 12 10 9 9 10 11 12 14 15 16 18 19 20 22 23 24 25 26 27 28 28 29 30 30 31 32 32 32 32
12 11 11 11 12 12 12 12 11 10 10 9 8 7 7 7 8 10 11 12 13 15 16 18 19 20 22 23 24 26 27 28 28 29 30 31 32 33 33 33 34 34
10 10 10 10 10 11 10 8 7 6 6 5 5 5 6 7 8 9 10 12 13 14 16 18 19 21 22 23 25 26 27 28 29 30 31 32 33 34 34 35 35 36
8 8 9 9 9 8 6 4 4 4 4 4 5 5 5 7 8 9 10 11 13 15 16 18 19 21 22 23 25 26 27 28 29 30 31 31 32 33 35 35 36 36
7 8 8 8 6 4 2 2 3 4 4 4 4 4 5 6 8 9 10 12 13 15 16 18 19 21 22 24 25 26 27 28 29 30 30 31 32 33 34 35 36 37
7 8 8 6 4 1 2 4 5 5 4 3 3 4 5 6 7 8 10 12 13 15 16 18 19 21 23 24 25 26 27 28 28 29 30 31 32 34 35 36 37 38
9 8 7 5 3 4 6 6 6 4 2 1 2 4 5 6 7 9 11 12 14 15 17 18 20 22 23 24 25 26 26 27 28 29 30 31 33 34 36 38 38 39
8 7 6 5 6 7 8 7 5 3 1 1 2 3 4 6 8 10 11 13 14 16 17 19 20 22 23 24 24 25 26 27 28 30 31 32 34 36 38 39 40 41
8 8 7 8 9 9 8 6 4 2 1 1 2 3 5 7 9 10 12 14 15 16 18 19 20 21 22 23 24 25 26 28 29 30 32 34 36 38 39 41 43 43

ECMWFNIL_700_spd_111.txt.gz
Wind_Speed
13 12 12 12 11 11 10 10 10 10 10 11 12 13 13 14 14 14 14 14 15 16 17 18 19 20 20 21 21 22 23 24 24 25 25 25 26 26 27 27 28 28
13 13 13 12 12 11 11 11 10 10 11 12 13 13 14 14 14 14 14 14 15 17 18 18 19 20 21 21 22 23 24 25 25 26 26 26 27 27 28 28 28 29
14 14 14 13 13 12 12 12 11 11 12 13 13 14 14 14 14 14 14 15 16 17 18 19 20 21 22 23 24 25 26 26 26 26 27 27 27 27 28 28 28 29
15 15 14 14 14 13 13 13 12 12 13 14 14 14 14 14 14 14 14 15 16 17 18 20 21 23 25 26 27 27 28 28 28 28 28 28 28 28 28 28 29 29
16 16 15 15 15 14 14 14 13 14 14 15 15 14 14 14 14 14 15 15 17 19 20 22 24 26 28 29 29 30 30 30 29 29 29 30 30 30 30 30 30 30
19 17 17 16 16 16 15 15 15 15 15 15 15 15 14 14 14 15 16 17 19 21 23 25 27 29 30 31 31 31 31 31 31 30 30 30 31 31 31 31 30 31
21 20 18 18 18 17 16 16 16 16 16 16 15 15 15 15 15 16 18 20 22 24 26 28 30 31 32 32 31 31 31 30 30 29 28 28 28 28 28 28 28 28
22 21 21 20 20 19 18 17 17 16 17 16 16 16 15 16 16 18 20 22 24 26 28 30 31 32 32 31 30 28 27 25 25 24 24 24 24 25 25 26 26 27
23 23 22 22 21 20 18 17 17 17 17 17 16 16 16 17 18 19 21 24 25 27 29 30 31 30 28 26 24 22 21 21 21 22 23 23 24 24 25 25 26 26
24 24 23 22 21 20 18 17 17 17 17 17 17 17 17 18 19 21 23 25 26 28 29 29 28 25 22 20 19 19 20 21 22 22 23 23 24 25 25 26 26 27
25 25 24 22 21 19 18 17 17 18 17 17 17 17 18 19 20 22 24 25 26 27 26 24 21 18 17 18 19 20 21 21 22 23 23 24 25 26 27 27 28 28
25 24 23 22 20 19 17 17 17 17 17 17 17 18 18 20 21 22 23 24 24 23 21 18 16 16 17 19 20 20 21 22 23 24 25 25 26 27 28 29 29 30
23 23 22 20 19 18 17 17 17 17 17 17 17 18 19 20 21 21 21 21 19 17 15 15 16 17 18 19 20 21 21 22 23 24 24 25 26 27 28 29 30 30
22 21 20 19 18 17 17 17 16 16 16 16 17 17 18 19 20 19 18 16 14 13 13 14 16 17 18 19 19 20 20 21 21 22 23 24 25 26 27 27 28 29
20 19 18 17 17 16 16 15 15 15 15 15 16 17 17 18 17 15 13 11 11 12 13 15 16 17 18 19 19 19 20 20 22 22 23 24 25 26 27 28 29 29
19 18 17 16 15 15 14 14 14 15 14 14 15 15 16 15 13 11 9 9 11 13 14 15 16 17 18 19 19 20 21 22 23 24 24 25 26 27 28 29 30 31
18 16 15 14 14 14 13 13 13 13 13 13 13 13 12 10 8 7 8 10 11 13 14 15 16 17 17 18 19 20 21 22 23 24 25 26 27 27 28 29 30 31
16 15 14 13 13 12 12 12 11 11 11 11 11 10 8 6 5 7 9 10 12 13 14 14 15 16 17 18 19 20 21 22 23 24 25 26 27 28 28 28 29 30
14 13 12 11 11 10 10 10 9 9 9 9 8 6 4 4 5 7 9 10 11 12 13 14 15 16 17 18 19 20 21 22 23 24 25 25 26 27 27 28 29 30
13 12 10 10 9 8 8 7 7 7 7 6 5 3 2 4 6 7 8 9 10 11 12 13 14 16 17 18 19 20 21 22 23 23 24 25 26 27 28 29 29 30
13 11 9 8 7 6 5 4 4 5 5 5 3 2 3 4 5 7 8 8 9 11 12 13 14 15 17 17 18 19 20 21 22 23 24 25 26 27 28 30 31 32
12 10 9 7 6 5 3 2 3 4 5 5 3 2 3 4 5 6 7 8 9 10 11 13 14 15 16 17 18 19 20 21 22 23 24 25 27 28 29 30 32 34
12 10 9 8 6 5 3 2 4 5 5 4 3 1 2 3 4 5 6 8 9 10 11 12 14 15 16 17 18 19 19 20 22 23 24 26 27 29 30 32 34 36
11 10 9 8 6 4 3 4 6 6 5 4 2 1 1 2 4 5 6 8 9 10 11 12 13 15 16 16 17 18 19 20 22 23 24 25 27 29 30 32 34 36
11 10 8 7 6 5 6 8 8 7 5 3 2 1 1 2 3 5 6 8 9 10 11 12 13 14 15 16 17 18 19 20 21 22 23 25 26 28 30 32 34 36
10 9 8 8 8 9 10 10 9 7 4 3 2 2 2 2 4 5 7 8 9 10 11 12 13 13 14 16 17 18 20 20 21 22 23 25 26 27 29 32 34 36

ECMWFNIL_700_spd_114.txt.gz
Wind_Speed
12 12 12 12 13 12 11 10 9 9 8 8 9 9 10 11 11 11 11 11 11 11 12 13 14 15 16 18 20 21 23 24 25 26 26 26 26 26 27 27 27 27
14 13 13 13 13 12 11 11 10 9 9 9 9 10 11 11 11 11 11 11 11 12 13 13 15 16 18 20 22 24 26 26 27 27 27 27 27 27 27 27 28 28
15 14 14 14 14 13 12 12 11 10 10 10 10 11 11 12 12 11 11 11 12 12 13 15 16 18 20 22 25 27 28 29 28 28 28 28 27 27 27 26 27 27
16 15 15 15 14 14 14 13 12 11 11 11 11 12 12 12 12 12 11 12 12 13 15 17 19 21 23 26 28 30 30 30 29 27 26 25 24 24 23 23 23 23
17 17 16 16 15 15 15 14 14 13 12 12 12 12 13 12 12 12 12 13 13 15 17 19 21 23 26 29 31 31 30 27 25 24 22 21 21 21 20 21 21 22
19 18 17 17 17 17 17 16 15 14 13 13 13 13 13 13 13 12 13 14 15 17 19 21 23 26 28 30 30 28 26 23 21 20 20 20 21 21 22 22 23 24
20 20 19 19 19 19 18 17 17 16 15 14 14 14 14 14 14 14 14 16 17 19 21 23 25 27 29 29 27 24 21 20 20 20 21 22 22 23 23 24 24 25
21 21 21 21 20 20 19 19 18 17 16 15 14 14 15 15 15 15 16 17 19 21 23 24 26 27 27 25 22 20 19 20 21 21 22 22 23 24 24 24 25 25
21 22 22 22 21 21 20 20 19 18 17 16 15 15 15 15 15 16 17 18 20 22 24 25 25 25 23 21 20 19 20 21 21 22 23 23 24 24 25 25 26 26
22 23 24 23 23 22 21 21 20 19 18 16 15 15 15 16 16 17 18 19 21 23 24 24 22 21 19 19 19 19 20 21 22 23 23 24 24 25 25 26 27 27
24 24 25 24 23 23 22 21 20 19 18 16 15 15 15 16 16 17 18 20 21 23 22 21 19 18 18 18 19 20 21 22 22 23 23 24 25 25 26 26 27 28
21 22 23 23 23 22 22 21 19 18 16 15 14 14 15 15 16 17 18 20 21 21 19 18 17 17 17 18 19 20 21 21 22 22 23 23 24 25 25 26 27 28
19 20 20 21 21 21 20 19 18 16 15 14 14 14 14 15 16 17 18 19 19 18 16 16 16 16 17 18 18 19 20 20 20 21 22 22 23 24 25 27 28 29
17 18 18 19 19 19 18 17 16 15 14 13 13 13 13 14 15 16 17 17 16 15 14 14 15 15 16 17 17 18 18 19 19 20 21 21 23 24 26 27 29 29
17 16 16 17 18 17 16 15 14 13 13 12 12 12 12 13 13 14 13 13 13 12 12 13 13 14 15 16 17 17 18 18 18 19 21 22 23 25 26 28 28 29
18 16 16 16 16 16 15 14 13 12 11 10 10 10 10 10 10 10 10 11 11 11 12 12 12 13 14 15 16 17 17 18 18 19 21 22 24 25 26 27 27 28
16 15 16 16 15 14 13 12 11 10 9 9 8 8 8 7 7 7 8 10 10 11 11 11 12 13 14 15 16 16 16 17 18 19 20 22 23 23 24 25 26 27
14 14 15 15 14 12 12 10 9 9 7 7 6 5 5 4 5 6 8 9 10 10 11 11 12 13 14 15 16 16 16 17 18 19 20 21 22 23 24 25 25 26
14 14 14 13 12 11 10 9 8 7 6 5 4 2 2 3 5 7 8 8 9 9 10 11 12 13 14 15 15 15 16 17 18 19 20 21 22 22 23 24 25 27
13 13 12 12 11 11 10 9 8 6 5 3 2 1 2 3 5 6 7 7 8 9 10 10 12 13 13 14 15 15 16 17 19 20 20 21 22 23 23 24 25 27
11 11 12 12 12 11 10 8 7 6 4 3 2 2 3 3 4 4 5 6 7 8 9 10 11 12 13 13 14 16 17 18 19 20 21 21 22 22 23 24 26 27
11 11 12 12 12 11 10 8 7 6 5 4 4 3 2 2 2 3 5 6 7 8 9 10 11 12 13 14 15 16 17 18 19 20 21 21 21 22 23 24 26 28
11 12 12 12 11 10 9 8 7 6 5 5 5 3 2 1 2 3 5 6 7 8 9 10 11 12 13 14 15 16 17 18 19 20 20 21 21 22 22 24 26 28
12 12 12 11 10 9 8 8 7 7 7 6 5 3 1 1 2 3 5 6 7 8 9 10 11 12 13 14 15 16 17 18 19 19 19 20 21 21 22 25 27 28
11 11 11 10 10 10 9 8 8 8 8 7 4 3 2 2 3 4 5 6 8 8 9 10 11 12 13 14 15 15 16 17 18 18 18 19 20 21 22 24 26 28
11 11 11 11 12 12 10 10 10 10 8 6 4 3 3 3 4 5 5 6 7 8 9 10 11 12 13 14 14 15 16 17 17 17 18 19 20 20 22 24 26 27

ECMWFNIL_700_spd_117.txt.gz
Wind_Speed
11 10 9 8 7 6 6 5 5 5 6 6 6 6 7 7 7 8 8 8 8 8 8 9 10 12 14 16 17 20 23 26 27 27 26 25 24 23 23 23 23 22
12 10 9 8 7 7 7 7 7 7 7 6 6 7 7 8 8 8 8 8 8 8 9 10 11 13 15 17 19 22 25 27 26 25 23 22 21 20 20 19 19 19
12 10 9 9 8 8 7 8 7 7 7 7 8 8 8 8 9 9 9 9 9 9 10 11 13 15 17 19 21 24 26 26 24 23 21 20 19 19 19 19 19 19
12 11 11 10 10 9 9 8 8 8 8 9 9 9 9 10 10 10 10 10 10 10 11 13 14 17 19 21 23 25 25 25 22 21 20 19 19 19 20 20 20 21
14 13 12 12 11 11 10 9 9 9 10 10 10 10 10 11 11 11 11 11 11 11 12 14 16 18 20 22 23 24 24 23 21 20 20 20 20 20 21 21 22 22
16 15 14 14 13 13 12 11 11 11 11 12 12 12 12 12 12 12 12 12 12 12 13 15 17 19 21 22 22 23 23 22 21 21 20 20 21 21 22 22 23 23
17 16 16 15 15 15 14 13 13 13 13 14 14 14 13 13 13 12 12 12 12 13 14 16 18 19 20 21 21 21 21 21 21 21 21 21 22 22 23 23 24 24
17 17 17 16 16 16 17 16 15 15 15 15 15 15 15 14 14 13 13 12 12 13 15 16 17 18 19 19 19 20 20 20 20 20 21 22 22 23 23 24 25 25
17 17 17 17 17 17 18 17 17 17 17 16 16 16 15 15 14 13 13 12 12 13 14 15 16 16 17 17 18 18 19 19 19 20 21 22 23 23 24 24 25 25
16 16 16 16 17 18 18 19 18 18 18 17 17 16 16 15 14 13 12 12 12 12 13 13 14 15 15 16 17 18 18 19 19 20 21 22 22 23 23 24 25 26
14 15 15 16 17 18 19 20 19 19 19 18 17 16 15 14 14 13 12 11 11 11 11 11 12 13 14 15 16 17 18 18 19 20 20 21 22 23 23 24 26 27
13 13 14 15 16 18 20 20 20 19 18 17 16 15 14 13 12 11 10 10 9 9 9 10 11 12 13 14 16 16 17 18 18 19 20 21 22 23 24 25 27 28
11 11 13 14 16 17 19 19 18 17 17 16 15 14 13 12 11 10 9 8 7 7 8 9 10 11 12 13 14 15 16 17 18 19 19 20 21 23 24 25 26 27
10 11 12 13 14 16 17 17 16 16 15 15 13 12 11 10 9 8 7 6 6 6 7 8 9 10 11 12 13 14 15 17 18 18 19 20 21 22 23 24 25 27
10 11 11 12 13 14 14 15 14 14 14 13 12 11 10 9 8 6 5 4 4 5 6 7 8 9 10 11 12 13 15 16 17 17 18 19 21 22 23 24 25 27
10 11 12 13 13 13 13 13 13 13 12 11 10 9 8 8 6 5 4 3 4 5 6 6 7 8 9 10 12 13 14 15 16 17 18 19 20 21 23 24 25 26
11 12 13 13 12 11 11 11 11 11 11 10 9 8 7 7 5 4 3 3 3 4 4 5 6 7 9 10 12 13 13 14 15 16 18 19 20 21 23 24 25 26
13 13 13 12 12 11 11 11 11 11 10 10 9 8 7 6 5 4 4 3 3 3 3 4 6 7 9 11 12 12 13 14 15 17 18 19 20 22 23 24 25 25
14 14 14 13 11 10 10 10 10 10 10 10 9 8 7 7 6 5 4 3 3 2 3 4 6 8 10 11 12 12 13 14 15 17 18 19 20 21 22 23 24 25
15 14 13 12 10 9 9 10 10 10 10 10 9 9 8 7 6 5 4 3 2 2 3 5 7 9 10 11 12 12 13 14 15 17 18 19 20 21 22 23 23 24
14 13 11 9 8 8 9 10 10 10 10 9 9 9 8 6 6 5 4 2 1 2 4 6 8 9 10 11 12 13 14 15 16 17 18 19 20 21 21 22 23 23
12 11 9 8 8 8 9 10 10 10 10 9 9 8 7 7 6 5 3 2 1 3 5 7 8 9 10 11 12 13 14 15 16 17 18 19 20 21 21 21 22 23
10 9 8 8 8 9 9 10 10 10 10 9 8 8 7 7 6 4 3 2 2 4 6 7 8 9 11 12 12 13 14 15 16 17 18 19 20 20 20 20 21 22
10 9 9 9 9 9 10 10 10 10 9 9 9 8 8 7 6 4 2 2 3 5 6 7 8 10 11 11 12 13 13 14 16 17 19 19 19 20 19 19 20 22
10 9 9 10 10 10 11 11 10 10 9 9 9 8 8 6 5 3 2 3 5 6 7 8 9 9 10 11 11 12 13 14 16 17 18 18 18 18 18 18 20 22
11 10 10 11 11 12 12 11 10 10 10 10 9 8 7 6 4 3 3 4 6 6 7 8 8 9 9 10 10 11 12 14 16 17 16 16 16 17 17 18 20 22

ECMWFNIL_700_spd_123.txt.gz
Wind_Speed
18 17 16 14 13 11 10 9 9 9 7 6 5 5 6 6 6 6 6 6 6 7 7 8 8 9 9 10 12 14 15 17 18 18 20 21 22 24 24 25 26 26
18 17 17 15 13 11 9 10 9 8 6 5 6 6 7 7 7 7 7 7 7 7 8 9 9 10 11 12 13 15 16 17 18 19 20 20 21 22 23 25 25 26
18 17 17 15 12 10 10 10 8 6 5 5 6 7 8 8 8 9 8 8 8 9 9 10 10 11 12 13 15 16 17 17 17 18 19 20 21 22 23 24 25 25
19 18 16 14 11 10 10 9 7 5 4 5 7 8 9 9 10 10 9 9 10 10 11 11 12 13 13 15 16 16 16 17 17 18 18 19 20 21 23 23 24 24
20 18 16 13 11 10 9 8 7 5 5 5 7 8 10 10 10 10 10 11 11 12 12 13 13 14 15 16 16 16 16 16 17 17 18 19 20 21 22 23 23 24
20 18 14 12 12 11 10 9 7 7 7 6 7 9 10 10 10 11 11 12 13 13 14 14 14 15 15 16 16 16 16 16 17 17 18 19 20 21 21 22 23 23
20 17 14 13 12 12 11 10 8 8 9 9 9 11 12 12 12 12 12 13 13 14 14 15 15 16 16 16 16 16 16 16 17 17 18 19 19 20 21 21 22 22
22 18 14 13 14 13 13 12 10 10 10 11 12 13 14 13 13 13 13 14 14 14 15 15 16 16 16 16 16 16 16 16 17 17 18 18 19 20 20 20 21 21
23 19 16 15 15 15 14 13 12 12 12 13 14 15 15 15 15 14 14 14 14 15 15 15 16 16 16 16 15 15 16 16 17 17 17 18 18 19 19 20 20 21
21 19 18 17 17 16 15 14 13 13 13 14 15 16 16 16 15 15 14 14 14 15 15 15 15 15 15 15 15 15 16 16 16 16 17 17 17 18 19 20 21 22
20 19 19 18 17 16 15 14 14 14 15 16 16 16 16 16 15 14 14 14 14 15 15 15 15 14 14 14 15 15 15 15 15 16 16 17 17 18 19 20 21 21
20 19 19 18 17 16 16 15 15 15 16 17 16 16 16 15 15 14 13 14 14 15 15 15 14 14 14 14 14 14 14 14 15 15 16 16 17 18 19 20 20 21
20 19 19 18 17 17 16 16 16 16 16 17 16 16 15 14 14 13 13 14 14 15 14 14 14 13 13 13 14 14 14 14 15 16 16 16 17 18 18 19 20 21
19 19 19 18 17 17 17 16 17 16 16 16 16 15 15 13 12 12 12 13 14 14 14 13 13 13 13 13 13 13 13 14 15 16 16 16 17 18 18 19 20 21
18 18 18 18 17 16 16 16 17 16 16 16 15 15 13 12 11 11 12 13 14 14 13 13 12 12 12 12 12 12 13 14 15 16 16 16 17 17 18 19 21 22
18 17 16 16 16 16 16 17 17 16 16 15 14 13 12 11 11 11 12 13 13 13 12 12 11 11 11 11 11 12 13 14 15 15 16 16 17 17 18 20 21 23
16 15 15 15 16 16 16 16 16 15 15 14 13 12 11 11 11 11 12 13 13 12 11 11 10 10 10 10 11 12 13 14 15 15 16 16 16 17 18 20 21 22
16 15 15 15 15 14 14 15 15 15 14 13 12 12 11 11 12 12 13 12 12 11 10 10 10 9 9 9 11 12 13 14 14 14 14 15 15 16 18 19 20 21
18 17 17 15 14 13 14 15 15 15 14 13 12 12 12 12 12 13 12 12 11 10 9 9 9 8 9 9 11 12 12 13 13 13 13 14 14 16 17 18 19 19
21 19 18 16 14 13 14 14 15 14 14 13 13 13 13 13 13 12 12 11 10 9 8 8 7 8 9 10 11 11 12 12 12 12 12 13 14 15 16 17 17 17
24 22 19 17 15 14 14 14 14 14 13 13 13 13 13 13 13 12 11 10 9 8 7 7 7 8 9 10 10 11 11 11 11 11 11 12 13 14 15 15 16 16
27 24 20 16 15 14 14 14 14 14 13 13 13 13 13 13 12 12 11 10 9 7 6 6 7 8 9 10 10 10 10 10 10 10 10 11 12 13 14 14 15 17
28 24 20 17 15 14 14 14 14 14 13 13 13 13 13 13 12 12 11 9 8 7 6 6 7 8 9 9 9 9 9 9 9 9 9 10 11 12 12 13 15 17
27 24 20 18 16 15 14 15 15 14 14 14 14 13 13 13 13 12 10 8 7 7 7 7 7 8 8 8 9 8 8 7 7 8 8 9 10 11 12 13 15 17
26 23 21 19 18 17 16 16 16 15 14 14 13 13 13 13 13 11 9 8 8 7 7 7 7 8 8 8 8 7 7 6 6 6 7 8 9 10 11 13 15 17
23 24 24 21 19 18 17 17 17 15 14 13 13 14 14 14 13 11 9 9 8 8 7 7 8 7 7 7 7 6 6 5 4 5 6 7 8 9 11 13 15 16

ECMWFNIL_700_spd_129.txt.gz
Wind_Speed
14 15 15 14 16 18 16 15 14 12 10 10 10 9 8 8 7 6 5 5 4 3 3 3 4 4 5 6 7 8 9 10 11 12 13 15 16 17 18 19 20 22
13 14 14 16 18 18 16 15 13 11 11 12 11 9 9 9 7 7 6 5 4 3 3 4 4 5 6 7 8 9 10 11 12 13 14 15 16 18 19 20 21 22
14 15 17 19 20 19 17 14 12 13 14 13 11 10 10 9 8 7 6 5 4 4 4 5 5 6 7 8 9 10 11 11 12 13 14 16 17 18 19 20 22 23
14 18 21 21 21 19 16 14 14 15 14 12 11 11 10 9 8 8 6 5 5 5 5 6 6 7 8 9 9 10 11 12 12 13 15 16 17 18 19 21 21 22
17 21 23 22 21 19 17 16 17 15 13 11 11 11 10 9 9 8 7 6 6 6 6 6 7 8 9 9 10 10 11 12 13 14 15 16 17 18 19 20 21 21
20 23 23 22 21 20 18 18 16 13 12 11 10 10 10 9 8 8 8 7 7 7 6 7 8 9 9 10 10 11 11 12 13 14 14 15 16 18 19 20 20 21
22 24 24 24 22 20 19 17 13 11 11 11 10 10 9 9 9 8 8 8 8 7 7 8 8 9 9 9 10 11 11 11 12 13 14 15 16 18 19 19 19 20
23 25 25 24 23 20 18 15 12 11 10 10 10 10 10 10 10 9 9 9 8 8 8 8 8 9 9 9 10 10 10 11 12 12 13 15 16 17 18 18 18 18
24 24 24 24 22 19 17 14 12 10 10 9 10 10 11 12 11 11 10 9 9 8 8 8 8 8 9 9 9 10 10 10 11 12 13 14 16 16 17 17 17 18
24 24 23 23 22 19 16 14 12 11 11 10 10 11 12 12 13 12 11 10 9 9 8 8 8 8 9 9 9 9 9 9 10 11 12 14 15 16 16 16 17 17
23 24 23 23 23 20 16 14 12 12 12 12 12 12 12 13 13 12 11 10 10 9 8 8 8 8 8 8 8 8 8 8 9 10 12 13 14 15 15 15 16 17
22 23 22 23 23 21 18 14 13 13 13 13 13 13 13 13 13 12 11 11 10 9 9 8 8 8 8 7 7 7 7 8 9 10 11 13 13 13 14 14 15 15
22 22 22 22 22 22 21 17 15 14 14 14 14 14 14 14 13 12 12 12 11 10 9 8 8 7 7 6 6 6 6 7 8 10 11 12 12 12 12 13 13 14
21 22 22 21 21 22 22 20 18 16 16 16 16 15 15 14 13 13 13 12 11 10 9 8 7 7 6 6 6 6 6 7 8 9 10 10 10 11 11 11 12 13
19 21 22 21 21 21 21 20 19 18 17 18 17 16 16 15 14 14 13 12 11 10 9 7 7 7 6 6 6 5 5 6 7 9 9 9 9 10 10 11 11 12
18 21 21 21 20 20 20 20 19 19 19 19 18 17 17 16 15 14 13 12 11 9 8 7 7 7 7 6 6 5 5 6 7 8 8 8 8 9 9 10 11 11
19 21 21 21 21 20 20 20 20 20 20 19 19 18 18 17 16 14 13 12 10 9 8 7 7 7 7 6 6 5 4 5 6 7 7 7 8 9 9 9 10 11
20 21 22 21 21 21 21 21 21 20 20 20 19 19 18 17 16 14 13 12 10 9 8 8 8 8 8 7 5 4 4 5 6 6 6 6 7 8 8 8 9 10
22 23 23 23 22 22 22 22 21 21 21 21 21 20 19 17 16 14 13 12 11 9 9 9 9 9 8 6 5 4 4 5 5 5 5 6 6 6 6 7 8 9
23 24 24 24 23 23 23 22 22 22 21 21 21 20 19 17 16 15 14 12 11 10 10 10 10 9 8 6 5 4 4 4 4 4 4 5 5 5 5 6 7 9
24 25 25 25 25 24 24 23 23 21 20 20 21 21 20 18 17 16 14 12 11 11 11 11 11 10 8 6 5 4 4 3 3 3 3 4 3 3 3 5 6 8
25 25 26 26 26 26 25 24 23 22 20 21 22 23 22 20 17 16 15 13 13 13 13 12 12 10 8 7 6 4 3 2 2 2 3 3 2 1 2 4 5 6
26 26 27 27 27 27 26 25 25 24 22 23 24 23 24 23 19 17 15 15 14 14 14 13 12 11 9 8 6 4 3 2 2 2 3 3 2 0 1 2 4 5
27 27 28 28 28 27 27 27 27 25 25 26 25 25 27 27 23 19 17 16 15 15 15 14 13 11 9 8 6 4 3 3 3 3 3 4 3 1 1 2 3 4
29 27 28 30 31 29 28 29 28 26 26 27 25 26 28 27 23 20 18 17 16 16 16 15 13 11 10 8 6 5 4 4 4 4 5 5 4 2 1 1 2 4
27 27 27 27 28 30 31 31 27 23 24 23 21 23 24 21 20 21 20 18 17 16 16 15 14 12 10 8 6 5 5 5 5 5 6 6 5 3 2 1 2 3

ECMWFNIL_700_spd_132.txt.gz
Wind_Speed
14 13 12 13 14 14 15 18 20 21 20 17 16 14 13 13 13 12 11 10 9 8 6 5 5 5 5 5 6 6 7 8 8 9 10 10 11 11 12 13 14 16
13 11 11 12 13 12 15 21 22 20 18 15 14 13 12 12 12 11 10 10 8 7 6 5 5 5 5 5 5 6 7 8 8 9 9 10 11 11 12 13 15 16
12 10 11 12 12 13 17 21 20 18 16 15 15 14 13 12 12 11 10 9 8 7 7 6 6 6 6 6 6 6 7 7 8 9 9 10 10 11 12 13 15 15
10 10 12 13 13 17 20 20 19 17 15 16 15 13 13 12 12 11 10 9 9 8 8 8 7 7 6 6 6 7 7 8 8 9 9 9 10 11 12 13 14 14
10 11 12 12 15 21 22 20 18 17 17 16 14 13 12 12 12 11 10 10 10 9 9 9 8 8 7 7 7 7 7 8 8 8 8 9 9 10 12 12 13 14
11 12 12 14 19 22 22 19 18 18 18 15 13 13 12 13 12 12 11 11 11 10 10 9 9 8 8 8 8 8 8 8 8 8 8 8 9 10 11 12 13 14
12 13 14 18 22 23 21 19 18 18 16 13 13 13 13 12 12 12 11 11 10 10 10 10 10 9 9 8 8 8 8 7 7 7 7 8 8 9 11 12 13 13
12 14 17 21 23 22 22 21 19 16 13 12 13 13 12 12 12 11 11 10 10 10 10 11 11 10 9 9 8 8 8 7 7 7 7 7 8 10 11 12 12 12
13 16 20 23 23 23 23 22 18 15 12 12 12 11 11 12 12 11 11 11 11 11 11 12 11 10 10 9 9 8 7 7 6 6 6 7 8 10 10 11 11 12
17 19 22 24 23 24 23 21 17 15 12 11 10 10 11 12 12 12 12 12 12 12 13 12 12 11 10 9 9 7 7 6 6 5 6 7 8 9 9 10 11 12
20 21 23 24 24 24 23 20 17 15 12 11 11 11 12 12 13 13 13 14 14 13 13 13 12 11 10 9 8 7 7 6 5 5 5 7 7 8 8 9 10 11
21 23 24 25 25 24 23 20 18 16 13 12 12 12 13 13 14 14 14 15 14 14 14 14 13 12 10 9 8 7 6 5 5 4 5 6 7 7 8 9 9 10
21 24 25 26 26 25 23 21 19 17 15 13 13 14 14 14 15 15 15 15 15 15 15 14 14 12 10 9 8 7 6 5 4 4 5 6 6 7 7 8 8 9
21 24 25 26 26 25 25 23 21 19 17 15 14 15 16 16 16 16 16 16 16 16 16 15 13 12 10 9 8 7 6 5 4 4 4 5 5 6 6 7 7 8
21 23 26 26 26 26 26 25 24 22 20 18 16 16 17 17 17 17 17 16 16 16 16 15 13 12 11 10 8 7 6 5 4 3 3 4 4 4 5 5 6 7
21 24 26 27 26 26 26 27 26 25 23 21 19 19 19 19 18 18 17 17 17 17 16 15 13 12 11 10 9 8 7 5 3 2 3 2 3 3 3 4 5 5
21 23 26 27 27 26 26 26 26 26 25 23 22 21 21 20 20 19 18 18 18 17 17 15 14 13 12 10 10 9 7 5 3 2 2 1 1 2 2 3 3 4
20 22 24 26 27 27 26 26 25 25 24 23 23 22 22 21 21 20 19 18 18 18 17 16 14 13 12 11 10 9 7 5 4 3 2 2 2 2 2 2 2 3
20 22 23 24 26 26 26 25 25 24 23 23 23 23 22 22 21 20 19 19 19 18 17 16 15 14 13 12 11 10 8 6 5 4 3 3 3 2 2 2 2 2
21 21 22 23 25 25 26 25 25 24 23 23 23 23 22 22 22 21 20 20 19 19 18 17 16 15 14 13 12 10 8 7 5 4 4 4 3 3 2 2 2 2
21 22 23 24 24 25 25 25 25 24 24 23 23 22 23 23 22 21 21 21 21 20 19 18 17 16 15 14 13 11 9 7 6 5 6 5 4 3 3 3 3 2
22 23 23 24 25 24 24 25 25 25 24 23 22 23 23 22 21 21 22 23 23 23 22 20 19 18 17 15 13 11 9 8 7 7 7 6 5 4 4 4 3 2
23 23 23 24 24 24 24 26 26 25 24 23 23 23 22 21 21 21 23 25 26 25 23 20 19 18 17 15 13 11 10 9 8 8 8 7 6 5 6 5 4 3
23 24 24 24 24 24 25 25 26 25 25 24 23 22 21 21 21 21 23 26 27 26 23 20 19 18 17 16 14 12 12 11 10 9 9 8 7 7 7 6 5 4
25 25 25 25 25 25 25 26 26 27 26 25 24 23 21 21 21 21 24 26 28 26 22 20 19 19 18 17 15 14 13 12 11 10 10 9 9 9 9 8 7 6
24 25 25 25 25 25 25 26 27 28 28 27 25 24 25 24 24 24 24 26 27 24 21 20 21 21 20 18 18 16 14 13 12 11 11 10 10 10 10 9 8 7

ECMWFNIL_700_spd_135.txt.gz
Wind_Speed
15 15 16 17 17 17 18 18 17 16 17 19 21 22 19 15 15 15 15 13 11 11 11 11 10 9 9 9 9 9 10 10 10 11 11 11 10 10 10 10 10 11
14 15 16 16 17 17 18 18 17 16 17 19 22 23 18 15 16 16 14 12 11 12 12 11 10 9 9 9 9 9 10 10 10 10 10 10 10 9 9 9 10 11
13 14 15 15 16 16 17 17 18 18 19 20 20 20 16 16 16 14 12 12 13 13 12 11 10 9 9 9 9 9 9 10 9 9 9 9 9 8 8 9 10 11
12 14 14 15 16 16 16 17 19 20 21 21 19 17 16 16 14 12 12 13 13 13 12 11 11 10 10 9 9 10 9 9 9 9 9 8 8 8 8 9 10 11
13 14 15 15 15 15 16 18 19 20 22 23 21 17 15 13 11 11 13 13 13 13 13 12 11 10 10 10 10 10 10 10 9 9 9 8 7 7 7 9 10 10
14 14 15 15 15 16 18 19 20 22 23 21 18 15 13 12 12 13 14 14 14 13 12 12 11 11 11 11 11 11 10 10 10 9 8 7 7 7 7 8 9 8
15 14 15 15 16 18 21 21 21 22 20 16 15 14 13 12 13 14 13 13 13 13 12 12 11 11 12 12 12 12 11 11 10 9 8 7 6 6 7 8 7 7
15 15 15 15 16 19 22 22 22 21 18 16 15 14 13 12 13 13 13 13 13 12 12 12 12 12 13 13 13 12 12 11 10 8 7 6 6 6 7 7 6 6
15 15 15 16 17 21 23 23 22 20 18 16 14 13 13 13 13 13 13 13 13 12 12 12 13 14 14 14 14 13 12 11 9 8 7 6 6 6 6 6 5 6
15 15 16 17 20 23 24 23 21 20 19 17 15 14 15 14 14 14 14 13 13 13 13 14 14 15 15 15 14 13 12 11 9 8 7 6 6 7 6 5 5 5
15 16 17 19 22 25 25 24 21 21 20 18 16 15 15 14 14 14 13 13 13 14 14 15 16 16 16 15 15 14 12 11 9 8 7 7 7 7 6 5 4 4
15 16 18 22 25 26 26 26 23 22 21 18 16 16 15 14 14 13 13 14 14 15 15 16 16 16 16 16 15 14 12 11 9 8 8 7 7 7 5 4 3 3
16 18 20 23 26 26 27 27 26 23 21 18 17 17 15 14 14 14 14 14 15 15 16 16 16 17 16 16 15 14 13 11 10 9 8 8 8 7 5 3 3 3
16 20 22 23 25 26 28 29 28 24 21 20 18 17 15 15 15 14 15 15 15 15 16 16 17 17 17 16 15 14 13 11 10 10 9 9 8 7 4 3 2 2
17 21 23 24 25 26 28 29 28 25 23 22 20 18 16 15 15 15 16 16 16 16 17 17 18 17 17 16 15 14 13 12 12 11 10 9 8 6 4 3 2 2
18 21 23 25 25 25 27 28 26 25 25 24 22 20 18 16 16 16 16 17 17 17 17 18 18 17 17 16 16 15 14 13 13 12 11 10 8 6 4 4 3 2
19 21 23 25 26 26 27 26 26 27 27 26 24 22 20 19 18 18 18 19 19 19 19 19 18 18 18 17 16 16 15 15 14 12 11 10 8 7 5 5 4 3
20 21 22 24 26 27 27 27 27 28 29 28 27 25 24 23 22 21 21 21 20 20 20 19 19 19 19 19 18 17 17 16 15 13 12 10 9 7 6 6 5 4
21 21 21 22 24 26 27 27 28 28 28 28 28 28 27 26 25 24 23 23 22 22 21 20 21 21 21 20 20 20 19 17 15 13 12 11 9 8 7 7 6 6
21 21 22 22 24 25 26 27 28 28 28 28 28 28 27 27 26 25 24 24 23 22 22 22 22 22 22 22 22 22 20 17 15 13 12 11 10 9 9 9 8 7
22 22 22 23 24 25 26 28 29 29 29 28 28 27 27 27 26 25 25 25 24 23 23 23 24 24 24 24 24 23 20 17 15 14 13 11 11 11 11 10 9 9
22 22 22 22 22 24 26 28 29 29 29 29 28 28 27 27 26 26 26 25 24 24 23 24 25 26 26 27 26 23 19 17 16 14 13 12 12 12 12 11 11 10
23 22 22 22 22 23 25 27 28 28 29 29 28 28 27 27 26 26 25 24 24 23 23 25 26 26 27 29 27 23 21 19 17 15 14 14 15 15 14 13 12 12
24 23 22 22 23 24 25 26 27 28 28 29 29 28 28 28 27 25 24 24 23 21 22 25 26 26 27 29 28 24 21 19 18 16 15 16 17 16 15 14 14 13
24 24 23 24 24 25 25 26 27 28 28 29 29 29 29 28 27 26 25 23 20 20 23 26 27 27 28 29 28 24 21 21 21 18 17 18 18 17 16 16 15 14
25 25 25 25 26 26 27 27 27 28 29 29 30 31 31 31 30 27 25 22 21 23 25 27 27 29 29 29 28 24 23 24 21 18 18 20 19 18 17 17 16 15

ECMWFNIL_700_spd_138.txt.gz
Wind_Speed
19 20 19 18 18 17 18 19 20 21 21 21 21 20 19 20 19 19 19 19 18 14 10 12 12 10 9 9 9 9 10 10 10 10 11 12 13 13 13 13 13 12
18 18 18 18 17 17 18 19 20 21 21 21 20 18 19 19 18 20 21 19 16 11 10 12 11 9 9 9 9 9 9 9 10 11 12 12 13 13 13 13 12 11
16 17 18 18 17 18 18 19 19 19 19 19 18 18 19 19 20 21 19 15 11 10 12 11 10 10 10 10 10 9 8 9 10 11 12 13 13 13 12 12 11 11
16 17 18 18 19 19 19 19 18 17 17 17 17 18 18 20 22 20 14 10 10 12 12 11 11 11 10 10 9 8 8 9 10 11 12 13 13 12 12 11 11 11
16 17 18 18 18 18 18 18 16 15 16 18 18 16 17 21 22 17 11 10 12 12 12 12 12 11 11 10 8 8 9 10 11 12 13 13 13 12 12 11 11 11
16 16 16 16 16 16 16 16 14 14 17 20 18 15 19 22 19 14 10 11 12 12 12 12 12 11 11 9 9 9 10 11 12 13 14 13 13 12 11 11 11 11
15 15 15 15 14 15 15 14 14 16 18 18 17 17 21 21 17 13 11 11 10 11 12 12 12 12 10 10 10 10 11 12 13 14 14 13 13 12 11 11 11 11
14 14 15 14 14 14 14 14 15 17 17 17 17 19 20 19 16 13 11 10 10 11 12 13 13 11 11 11 11 11 12 13 14 14 14 13 13 12 11 11 11 11
13 14 14 14 15 14 14 16 18 18 18 17 18 20 20 18 15 12 11 11 12 13 13 13 12 11 12 11 12 12 13 14 14 14 14 14 13 12 12 11 11 11
13 14 15 15 14 13 15 18 19 19 18 18 20 20 18 15 13 12 12 12 13 13 13 12 11 12 12 12 13 13 14 15 15 15 15 14 13 12 12 11 11 11
14 14 15 14 14 14 15 17 18 19 20 21 20 17 15 13 13 13 13 12 13 13 12 12 12 12 13 13 14 14 15 15 15 15 15 15 14 13 12 12 11 10
14 14 14 14 13 14 16 17 18 21 23 21 17 15 13 13 13 13 12 13 13 13 12 13 13 13 14 14 15 15 16 16 16 16 16 15 14 13 12 12 11 10
14 14 14 14 14 15 17 18 20 23 23 20 17 14 13 13 13 13 13 14 14 13 13 14 14 14 15 15 16 16 16 17 17 17 17 16 15 14 13 12 11 10
14 14 14 14 15 17 20 21 22 24 22 19 17 14 14 14 15 14 14 14 14 14 14 14 14 15 15 16 16 17 17 18 18 18 17 16 15 14 13 12 11 11
14 14 15 15 16 19 22 23 25 25 24 21 18 16 16 17 16 16 15 14 14 14 14 14 15 15 16 16 17 17 18 18 19 19 18 17 16 15 13 12 12 12
15 14 15 16 17 20 24 25 27 27 26 24 21 19 19 19 18 17 15 14 15 15 15 15 16 16 16 17 17 18 19 20 20 20 19 18 17 15 14 13 13 13
16 15 15 16 19 21 24 27 29 29 28 26 24 22 21 20 19 18 17 15 16 15 15 16 16 16 17 17 18 19 20 20 21 21 21 19 17 15 15 14 14 14
17 16 16 17 20 22 24 27 29 30 29 28 26 24 22 21 21 21 19 18 18 17 17 18 17 17 18 18 20 21 21 22 22 22 22 20 18 16 16 15 15 15
18 18 17 17 19 22 24 26 28 30 31 30 28 26 25 24 23 24 23 22 21 20 20 19 18 19 19 20 21 22 23 23 23 23 23 21 19 17 16 16 15 15
20 19 19 18 19 22 24 26 28 29 30 30 30 29 27 26 26 27 27 26 25 24 22 20 20 20 21 22 23 23 24 25 25 26 25 22 18 17 17 17 16 15
20 20 20 19 20 22 24 26 27 28 29 30 31 30 29 29 29 30 30 29 27 26 23 21 22 22 22 23 24 25 26 27 28 27 24 20 17 17 18 17 16 16
21 20 20 20 20 21 23 25 26 28 29 30 30 30 29 30 30 30 30 29 27 26 23 22 23 24 23 23 25 26 27 28 26 24 21 19 18 18 19 18 17 18
21 21 20 21 21 22 23 24 24 25 27 28 28 28 29 30 30 30 29 28 28 27 23 23 24 24 23 24 25 26 27 26 25 24 22 21 20 21 22 20 19 19
22 21 21 21 22 22 23 23 23 24 25 26 26 28 29 30 31 30 28 28 29 28 25 24 24 23 23 24 25 25 26 26 26 26 25 23 23 24 23 21 20 20
23 22 23 22 22 22 23 23 24 25 25 25 26 28 30 31 31 31 30 31 33 32 27 25 25 24 23 25 26 26 27 27 28 28 26 25 25 25 23 22 22 22
24 24 24 24 24 24 24 24 26 26 26 26 27 29 30 31 32 32 32 34 36 33 28 26 26 25 25 26 27 26 27 29 30 29 28 26 26 25 23 24 24 23

ECMWFNIL_700_spd_141.txt.gz
Wind_Speed
17 16 15 16 17 17 17 17 18 18 17 17 17 17 17 16 16 16 17 17 18 19 19 20 18 15 13 13 13 12 11 11 10 9 8 8 9 9 10 11 11 12
16 16 16 16 17 16 16 18 18 18 17 17 18 18 17 17 16 17 17 17 19 20 21 20 18 15 13 12 12 11 10 9 8 7 7 7 8 9 10 11 11 12
16 15 16 16 16 16 16 17 18 18 17 17 18 17 17 17 17 16 16 18 21 22 21 21 17 14 12 12 11 10 9 7 7 7 7 8 9 10 10 11 12 12
16 15 15 15 15 15 17 18 18 17 16 17 17 16 17 16 16 15 16 20 23 23 21 19 16 13 13 12 9 8 8 7 7 7 7 8 9 10 11 11 12 12
15 15 14 14 14 15 17 17 17 17 17 17 16 16 15 15 14 15 17 19 21 20 18 16 14 14 13 10 9 8 8 7 7 7 7 8 9 10 11 12 12 11
15 15 14 14 14 16 17 17 17 17 16 17 16 15 14 14 14 16 17 18 18 17 15 13 13 14 12 10 9 8 8 7 7 7 8 8 10 11 12 12 12 11
15 14 13 14 16 17 17 16 16 16 16 16 16 15 15 15 15 16 18 19 18 16 14 13 12 13 11 10 9 8 8 8 7 7 8 9 11 12 12 12 12 12
15 14 13 14 16 17 16 15 15 15 16 16 15 15 15 15 14 17 21 20 17 14 13 12 12 12 11 10 9 9 8 8 8 8 9 10 12 12 12 12 12 13
15 14 13 14 16 16 14 14 14 15 16 14 14 14 14 14 15 21 22 18 15 12 12 11 12 11 10 10 10 9 8 8 9 9 10 12 12 13 13 13 13 13
14 13 14 15 15 14 13 13 14 14 15 13 13 13 13 14 18 22 20 15 12 11 10 10 10 9 10 11 10 9 9 9 10 11 12 12 13 14 14 14 14 14
13 13 14 14 13 13 13 13 14 14 14 13 12 12 13 16 19 19 15 12 10 9 9 9 9 9 11 11 10 9 10 11 11 12 12 13 14 14 15 15 14 14
13 13 14 13 12 12 13 13 12 12 12 12 11 13 16 19 18 14 12 11 10 9 9 9 10 11 11 10 10 10 11 12 12 12 13 14 15 15 16 15 14 13
13 13 13 13 12 12 12 11 11 11 11 11 12 17 20 18 14 12 12 12 10 10 10 10 11 11 11 11 11 11 12 12 12 13 14 15 16 16 16 15 14 14
13 13 13 12 12 12 12 11 11 11 12 13 18 21 20 16 14 13 13 12 11 11 11 11 11 11 11 11 11 12 12 12 13 15 16 16 17 17 16 16 16 16
13 13 13 12 12 13 12 12 12 13 14 17 22 22 18 16 14 13 13 13 12 12 12 12 11 11 11 11 11 11 12 13 15 16 17 17 17 18 18 18 18 17
14 13 13 12 12 12 12 12 13 14 16 21 23 21 18 16 14 13 14 14 13 13 13 12 11 11 11 11 11 12 13 14 16 17 18 18 19 19 19 20 19 17
14 13 13 12 11 12 12 12 14 15 18 22 24 22 20 18 15 15 15 15 14 14 14 12 11 11 11 11 12 13 14 16 18 19 19 19 20 21 22 22 20 18
15 14 14 12 11 12 13 14 15 16 19 23 25 24 22 20 18 17 17 16 16 16 15 13 12 12 12 13 14 15 16 18 19 20 20 20 21 23 23 21 19 18
16 15 15 13 11 12 14 15 16 17 20 24 26 26 24 22 20 19 19 18 17 17 17 16 15 15 15 16 17 18 19 20 21 21 21 21 22 23 23 21 20 20
17 17 16 14 13 13 13 15 17 18 20 24 26 27 25 24 22 21 21 20 20 19 20 19 18 19 20 20 20 20 21 21 22 22 22 22 23 23 22 21 21 21
18 17 16 15 14 13 13 14 17 19 21 23 25 26 27 26 25 25 24 23 22 22 23 23 23 23 24 23 23 22 22 23 23 23 23 23 23 23 22 21 21 20
18 18 16 15 15 14 14 14 16 18 21 22 24 26 27 28 28 28 28 27 26 26 26 26 26 26 27 26 25 24 24 24 24 24 24 24 24 24 23 21 20 19
19 18 17 16 16 15 15 15 16 17 19 21 23 25 26 28 29 30 31 30 29 29 29 29 28 28 29 28 27 26 26 25 25 25 25 25 25 24 23 22 20 18
19 18 17 17 17 17 17 17 17 17 17 19 20 22 25 27 29 30 32 31 31 30 31 30 30 30 31 31 29 28 27 26 25 26 27 26 24 24 24 23 21 19
19 19 19 18 18 18 18 18 17 17 18 19 19 21 23 25 26 28 29 29 29 30 31 33 33 32 32 33 32 29 28 27 25 26 27 25 25 26 25 24 22 20
20 20 20 19 18 18 18 19 19 19 20 20 21 22 23 24 25 26 27 28 28 29 31 33 32 28 28 32 34 31 30 29 27 27 27 25 25 26 25 23 22 21

ECMWFNIL_700_spd_144.txt.gz
Wind_Speed
18 18 18 18 17 18 18 19 19 20 20 19 18 17 16 16 16 15 15 16 17 18 20 20 19 18 18 17 16 15 13 12 13 13 12 11 10 8 8 7 8 8
19 18 17 17 17 18 18 18 18 19 20 20 18 17 17 17 16 16 17 17 18 20 21 20 18 18 18 17 16 16 14 12 13 12 11 10 9 7 7 6 7 8
18 17 16 16 16 18 18 17 17 19 20 20 18 17 17 17 16 17 18 17 18 21 19 17 18 18 18 17 16 16 15 12 13 12 11 9 8 6 6 6 8 9
17 15 15 15 17 18 17 16 17 18 19 19 18 17 17 17 17 17 17 17 18 20 16 15 16 17 17 16 16 16 13 12 12 12 10 8 7 5 6 7 8 9
15 14 14 15 17 17 17 16 17 18 18 18 18 18 18 18 17 16 16 16 17 17 16 16 18 18 17 17 17 15 13 12 12 10 8 7 6 5 6 7 8 10
15 14 15 16 17 17 16 16 17 17 18 18 18 19 18 18 17 15 14 15 15 15 16 18 20 19 18 18 17 13 12 11 10 9 7 6 6 6 7 8 9 10
14 14 14 16 17 17 16 16 17 17 17 18 18 19 18 17 16 13 12 12 13 15 17 18 18 17 17 17 15 12 11 10 8 8 7 6 6 7 7 9 10 11
15 14 15 16 17 17 17 16 16 16 16 17 18 18 17 16 14 12 10 10 12 15 17 17 15 14 15 15 14 11 10 9 8 7 7 7 7 7 8 9 11 11
15 15 15 16 17 17 17 16 15 15 16 17 17 16 15 14 12 11 10 11 13 16 17 15 13 13 14 14 13 11 10 9 8 8 8 8 8 8 9 10 11 12
15 15 16 16 16 16 16 15 15 15 16 16 16 14 13 12 11 10 12 15 18 18 16 14 14 14 14 14 12 11 10 9 9 9 9 9 9 9 10 11 12 12
16 16 15 15 15 15 15 14 15 16 16 15 14 12 12 11 10 12 16 20 21 19 16 15 14 14 13 13 11 10 10 9 9 9 9 9 9 10 11 12 13 13
16 16 15 15 15 14 14 14 15 16 15 14 12 12 11 10 11 16 21 22 21 18 15 14 13 12 12 12 11 10 10 9 10 9 9 10 10 11 12 13 14 14
16 16 16 16 15 14 14 15 15 15 14 12 11 11 12 12 15 19 22 22 20 17 14 12 12 11 11 10 10 10 9 9 9 9 9 10 12 12 13 14 15 16
17 17 17 16 15 14 14 15 15 14 13 12 12 12 14 17 19 21 21 20 17 14 12 11 11 10 10 9 9 9 9 9 9 9 10 11 13 13 14 15 16 17
18 17 17 16 14 14 14 14 13 13 12 12 12 14 17 21 22 21 18 16 14 12 11 11 10 10 10 9 9 9 9 8 9 10 11 12 14 15 16 17 18 19
19 18 16 15 14 13 13 13 12 12 11 12 13 16 21 23 22 18 15 14 13 12 11 11 10 10 10 10 10 9 9 9 10 11 12 14 15 16 17 18 19 20
19 18 16 15 14 13 12 12 12 11 11 12 14 17 22 22 19 16 15 14 13 12 11 11 11 11 11 11 10 10 10 10 11 12 14 15 16 17 18 19 20 19
20 18 17 15 14 13 12 12 12 11 12 13 15 18 22 21 18 16 15 15 14 13 12 12 12 12 12 12 12 12 12 13 13 14 15 17 18 19 19 20 21 19
20 19 17 16 14 13 12 13 12 12 13 13 15 19 21 21 20 18 17 16 16 14 13 13 13 14 14 14 14 15 15 15 16 17 18 18 19 19 20 21 21 19
21 20 18 16 15 13 12 12 12 12 13 14 16 19 21 22 21 20 18 17 17 16 16 16 16 16 17 17 18 19 19 19 19 20 20 20 21 21 21 22 21 20
21 20 19 17 16 14 13 12 12 12 13 14 15 17 20 22 22 21 21 20 19 19 18 18 19 19 20 21 22 23 24 23 23 23 22 22 23 23 23 23 22 21
22 21 20 18 16 15 13 12 11 11 12 13 14 16 19 21 23 23 23 23 22 22 22 22 23 23 24 25 26 26 27 27 26 25 24 24 25 26 25 24 22 22
22 22 21 19 17 15 14 12 11 11 12 13 15 16 18 20 22 24 25 26 26 26 26 27 27 28 29 29 29 30 31 30 29 28 26 27 29 29 27 24 22 22
22 23 22 20 17 15 13 12 12 11 12 13 14 16 18 20 22 24 26 27 28 29 30 30 31 32 33 33 33 33 33 32 31 30 29 30 32 31 28 26 24 23
22 23 22 20 18 16 14 14 14 13 14 14 15 16 18 20 22 23 25 27 29 31 31 32 33 34 35 37 35 34 35 35 34 31 31 33 33 32 29 27 25 23
23 23 22 19 18 17 17 16 16 16 16 16 16 18 19 20 22 23 25 27 29 29 30 31 32 33 35 35 31 27 29 32 33 32 32 33 33 31 27 24 23 23